GEFSMA_prec_meanprecacc_108.txt.gz
Total_Precipitation_Accumulation
1.29 1.34 1.32 1.38 1.33 1.45 1.67 1.87 1.84 1.88 1.91 1.77 1.52 1.37 1.35 1.29 1.17 1.30 1.34 1.59 1.50 1.45 1.81 1.91 1.73 1.55 1.40 1.18 0.96 0.80 0.71 0.68 0.61 0.47 0.40 0.44 0.52 0.59 0.53 0.46 0.41 0.39 0.33
1.62 1.54 1.38 1.43 1.41 1.51 1.61 1.80 1.90 2.15 2.09 2.00 1.58 1.42 1.44 1.49 1.42 1.51 1.56 1.81 1.70 1.48 1.62 1.75 1.81 1.75 1.60 1.44 1.20 0.99 0.81 0.74 0.65 0.47 0.39 0.38 0.44 0.55 0.53 0.52 0.48 0.44 0.38
1.80 1.73 1.55 1.46 1.54 1.62 1.68 1.74 1.86 2.12 2.05 1.92 1.63 1.53 1.48 1.39 1.24 1.28 1.40 1.54 1.51 1.42 1.47 1.55 1.67 1.69 1.66 1.65 1.53 1.36 1.08 0.86 0.72 0.56 0.44 0.34 0.31 0.36 0.38 0.43 0.46 0.47 0.40
1.81 1.78 1.57 1.42 1.64 1.67 1.70 1.82 1.89 2.01 2.08 2.09 1.82 1.59 1.49 1.38 1.18 1.20 1.20 1.22 1.29 1.09 1.26 1.48 1.60 1.65 1.80 1.89 1.90 1.86 1.55 1.15 0.85 0.68 0.54 0.41 0.32 0.30 0.27 0.27 0.34 0.34 0.30
1.73 1.77 1.51 1.38 1.64 1.79 1.78 1.67 1.89 2.10 2.07 2.09 1.83 1.59 1.37 1.20 1.03 1.00 1.05 1.00 1.04 1.02 1.04 1.14 1.27 1.38 1.73 2.11 2.28 2.26 2.07 1.59 1.12 0.88 0.75 0.62 0.49 0.41 0.30 0.24 0.25 0.23 0.20
1.54 1.74 1.47 1.45 1.70 1.76 1.72 1.81 1.95 2.12 2.00 2.05 1.86 1.42 1.17 0.92 0.88 0.79 0.73 0.75 0.71 0.68 0.72 0.90 1.19 1.13 1.45 1.76 1.96 2.16 2.30 2.10 1.61 1.19 1.01 0.88 0.77 0.61 0.43 0.31 0.26 0.24 0.20
1.58 1.85 1.61 1.62 1.67 1.61 1.61 1.80 1.94 1.87 1.75 2.16 2.09 1.37 0.88 0.70 0.62 0.47 0.49 0.50 0.46 0.49 0.62 0.87 1.06 1.12 1.09 1.19 1.34 1.54 1.90 2.14 2.01 1.61 1.35 1.17 1.03 0.78 0.56 0.45 0.34 0.27 0.22
1.56 1.68 1.69 1.62 1.62 1.60 1.45 1.54 1.80 1.68 1.40 1.85 2.01 1.79 1.15 0.72 0.50 0.35 0.37 0.38 0.42 0.55 0.61 0.68 0.87 1.05 1.05 1.17 1.12 1.05 1.40 1.82 2.07 2.01 1.73 1.41 1.13 0.86 0.67 0.57 0.43 0.35 0.29
1.59 1.68 1.59 1.45 1.41 1.42 1.30 1.31 1.52 1.59 1.38 1.44 1.80 2.05 1.56 0.94 0.68 0.45 0.47 0.50 0.61 0.73 0.73 0.78 0.86 0.97 1.04 1.20 1.30 1.31 1.17 1.32 1.77 2.26 2.19 1.73 1.23 0.91 0.75 0.70 0.64 0.49 0.40
1.73 1.64 1.48 1.32 1.17 1.14 1.11 1.08 1.25 1.37 1.38 1.18 1.33 1.47 1.43 1.32 1.18 0.76 0.56 0.60 0.75 0.82 0.85 0.90 0.92 0.97 1.06 1.25 1.38 1.42 1.15 1.03 1.23 1.90 2.24 2.10 1.64 1.16 0.91 0.91 1.11 0.97 0.63
1.68 1.53 1.41 1.29 1.18 1.08 1.02 1.00 1.05 1.09 1.12 1.04 1.09 1.16 1.24 1.25 1.18 1.08 0.80 0.77 0.78 0.65 0.67 0.73 0.87 1.12 1.20 1.30 1.48 1.45 1.35 1.30 1.26 1.36 1.58 1.75 1.76 1.49 1.24 1.24 1.60 1.75 1.42
1.26 1.20 1.12 1.03 0.99 0.99 1.00 0.97 0.95 0.96 0.98 1.00 1.02 1.04 1.15 1.24 1.27 1.29 1.11 0.97 0.87 0.73 0.71 0.72 0.80 0.98 1.08 1.15 1.21 1.31 1.31 1.27 1.16 1.13 1.16 1.23 1.34 1.47 1.54 1.67 2.00 2.30 2.35
0.71 0.68 0.70 0.72 0.74 0.75 0.76 0.78 0.77 0.78 0.87 0.94 0.97 1.03 1.13 1.22 1.31 1.34 1.25 1.05 0.95 0.85 0.90 0.86 0.79 0.89 0.93 1.10 1.17 1.08 0.95 0.94 0.83 0.81 0.85 0.93 1.06 1.21 1.31 1.44 1.73 2.09 2.37
0.50 0.49 0.52 0.55 0.57 0.60 0.62 0.66 0.66 0.66 0.68 0.74 0.79 0.95 1.07 1.08 1.18 1.28 1.29 1.24 1.15 1.09 1.16 1.09 0.94 0.90 0.94 1.03 1.03 0.93 0.87 0.75 0.61 0.53 0.53 0.57 0.65 0.82 0.99 1.15 1.33 1.50 1.69
0.44 0.45 0.49 0.54 0.57 0.61 0.63 0.61 0.62 0.63 0.72 0.77 0.79 0.90 0.99 1.03 1.10 1.19 1.28 1.33 1.37 1.33 1.31 1.24 1.04 0.98 0.94 0.92 0.97 0.90 0.94 0.76 0.51 0.42 0.41 0.42 0.44 0.48 0.59 0.77 0.94 1.09 1.29
0.43 0.47 0.49 0.55 0.59 0.59 0.57 0.56 0.56 0.59 0.69 0.79 0.88 0.99 1.03 1.04 1.06 1.15 1.27 1.44 1.54 1.52 1.37 1.14 1.03 1.07 1.09 0.99 0.93 0.80 0.75 0.72 0.55 0.43 0.39 0.39 0.39 0.41 0.46 0.60 0.75 0.87 1.02
0.42 0.46 0.49 0.52 0.53 0.54 0.55 0.58 0.58 0.64 0.70 0.75 0.79 0.91 0.99 1.02 1.06 1.11 1.20 1.29 1.44 1.57 1.44 1.22 1.17 1.22 1.28 1.25 1.08 0.90 0.75 0.69 0.59 0.47 0.38 0.37 0.37 0.42 0.48 0.55 0.66 0.77 0.84
0.49 0.50 0.53 0.54 0.52 0.55 0.63 0.70 0.69 0.74 0.79 0.81 0.82 0.84 0.83 0.89 1.00 1.02 1.08 1.12 1.23 1.43 1.39 1.30 1.33 1.37 1.39 1.33 1.25 1.07 0.88 0.77 0.71 0.55 0.42 0.37 0.36 0.38 0.42 0.42 0.50 0.65 0.77
0.54 0.56 0.61 0.69 0.71 0.71 0.72 0.77 0.83 0.84 0.78 0.73 0.73 0.73 0.71 0.73 0.78 0.87 0.97 0.96 0.98 1.10 1.25 1.32 1.43 1.50 1.57 1.46 1.28 1.14 1.02 0.93 0.74 0.64 0.53 0.43 0.40 0.38 0.39 0.39 0.43 0.51 0.64
0.45 0.51 0.60 0.70 0.80 0.85 0.88 0.84 0.79 0.78 0.72 0.67 0.62 0.59 0.61 0.64 0.66 0.71 0.80 0.85 0.88 0.97 1.11 1.20 1.38 1.58 1.60 1.65 1.52 1.30 1.20 1.14 0.91 0.67 0.62 0.55 0.49 0.44 0.40 0.36 0.37 0.44 0.53
0.43 0.54 0.66 0.76 0.89 0.96 0.90 0.86 0.78 0.73 0.71 0.64 0.57 0.52 0.50 0.49 0.52 0.58 0.60 0.67 0.75 0.85 0.89 0.99 1.14 1.39 1.53 1.63 1.59 1.40 1.26 1.28 1.16 0.86 0.72 0.67 0.63 0.56 0.51 0.44 0.36 0.36 0.44
0.39 0.48 0.55 0.63 0.66 0.61 0.61 0.58 0.54 0.52 0.54 0.51 0.48 0.48 0.44 0.39 0.42 0.43 0.41 0.46 0.54 0.61 0.72 0.86 0.94 1.14 1.34 1.43 1.54 1.63 1.51 1.35 1.30 1.17 1.05 0.98 0.86 0.79 0.67 0.52 0.43 0.34 0.34
0.35 0.39 0.42 0.46 0.47 0.47 0.38 0.32 0.31 0.32 0.38 0.40 0.42 0.44 0.35 0.30 0.37 0.40 0.37 0.32 0.35 0.38 0.46 0.65 0.78 0.88 1.11 1.32 1.48 1.65 1.65 1.58 1.49 1.43 1.33 1.31 1.11 0.94 0.80 0.68 0.59 0.45 0.37
0.38 0.39 0.39 0.39 0.44 0.42 0.32 0.24 0.22 0.22 0.28 0.31 0.36 0.42 0.43 0.38 0.38 0.40 0.41 0.36 0.32 0.31 0.34 0.40 0.50 0.68 0.94 1.30 1.50 1.57 1.69 1.74 1.71 1.65 1.56 1.54 1.40 1.20 1.05 0.92 0.81 0.61 0.49
0.45 0.44 0.41 0.42 0.46 0.47 0.37 0.24 0.21 0.24 0.30 0.32 0.35 0.40 0.44 0.43 0.42 0.33 0.36 0.37 0.36 0.36 0.31 0.34 0.41 0.53 0.71 0.99 1.38 1.51 1.55 1.49 1.47 1.33 1.19 1.22 1.28 1.28 1.26 1.16 1.01 0.87 0.71
0.54 0.50 0.47 0.50 0.55 0.60 0.53 0.30 0.25 0.28 0.35 0.42 0.51 0.51 0.44 0.40 0.38 0.31 0.35 0.41 0.38 0.36 0.38 0.39 0.39 0.41 0.47 0.64 0.93 1.17 1.22 1.19 1.10 1.11 0.92 0.85 0.88 0.95 1.08 1.06 0.96 0.89 0.83

GEFSMA_prec_meanprecacc_114.txt.gz
Total_Precipitation_Accumulation
1.40 1.45 1.44 1.48 1.40 1.52 1.73 1.93 1.89 1.92 1.95 1.81 1.54 1.38 1.37 1.33 1.30 1.36 1.38 1.63 1.53 1.48 1.85 1.96 1.80 1.61 1.47 1.23 1.02 0.85 0.75 0.70 0.63 0.49 0.42 0.46 0.55 0.60 0.55 0.47 0.43 0.41 0.34
1.75 1.66 1.50 1.52 1.48 1.55 1.65 1.84 1.94 2.20 2.13 2.03 1.61 1.43 1.45 1.52 1.49 1.54 1.60 1.86 1.73 1.50 1.65 1.79 1.88 1.82 1.67 1.51 1.27 1.07 0.89 0.80 0.70 0.50 0.43 0.41 0.48 0.57 0.55 0.55 0.50 0.46 0.39
1.91 1.82 1.63 1.52 1.58 1.65 1.73 1.78 1.91 2.18 2.10 1.97 1.67 1.56 1.49 1.41 1.27 1.31 1.43 1.59 1.54 1.45 1.51 1.59 1.72 1.75 1.74 1.74 1.62 1.46 1.18 0.96 0.80 0.62 0.49 0.38 0.34 0.39 0.40 0.45 0.49 0.48 0.41
1.89 1.84 1.62 1.46 1.68 1.69 1.74 1.87 1.95 2.08 2.15 2.16 1.88 1.63 1.51 1.40 1.20 1.22 1.22 1.25 1.34 1.12 1.31 1.51 1.64 1.69 1.86 1.98 2.01 1.98 1.67 1.26 0.95 0.77 0.60 0.45 0.35 0.33 0.29 0.29 0.35 0.36 0.30
1.77 1.82 1.56 1.44 1.68 1.84 1.83 1.71 1.97 2.18 2.13 2.15 1.87 1.63 1.39 1.22 1.06 1.02 1.06 1.02 1.07 1.05 1.09 1.18 1.30 1.41 1.78 2.20 2.38 2.38 2.20 1.73 1.24 0.98 0.83 0.69 0.54 0.45 0.33 0.26 0.27 0.24 0.21
1.57 1.78 1.52 1.51 1.76 1.82 1.78 1.86 2.01 2.18 2.05 2.09 1.88 1.46 1.20 0.94 0.90 0.81 0.74 0.77 0.73 0.69 0.76 0.97 1.25 1.18 1.50 1.84 2.05 2.27 2.44 2.27 1.76 1.30 1.10 0.97 0.84 0.66 0.46 0.34 0.28 0.26 0.21
1.61 1.89 1.66 1.67 1.72 1.66 1.66 1.85 1.98 1.91 1.80 2.20 2.13 1.42 0.91 0.72 0.63 0.49 0.51 0.52 0.47 0.51 0.67 0.94 1.14 1.20 1.16 1.24 1.40 1.63 2.03 2.27 2.13 1.71 1.44 1.25 1.11 0.85 0.62 0.51 0.37 0.29 0.23
1.59 1.71 1.73 1.65 1.66 1.63 1.49 1.58 1.83 1.71 1.43 1.87 2.04 1.82 1.19 0.75 0.53 0.37 0.38 0.39 0.44 0.57 0.64 0.71 0.93 1.12 1.11 1.26 1.18 1.11 1.47 1.91 2.18 2.13 1.84 1.51 1.22 0.93 0.74 0.63 0.48 0.38 0.31
1.63 1.71 1.62 1.47 1.44 1.44 1.33 1.34 1.54 1.61 1.41 1.45 1.81 2.07 1.58 0.98 0.72 0.48 0.48 0.52 0.63 0.75 0.76 0.80 0.88 1.00 1.08 1.26 1.39 1.38 1.22 1.37 1.85 2.37 2.32 1.87 1.35 1.01 0.83 0.77 0.70 0.54 0.43
1.76 1.67 1.50 1.34 1.19 1.15 1.12 1.09 1.26 1.38 1.38 1.19 1.33 1.47 1.44 1.34 1.20 0.79 0.58 0.61 0.76 0.84 0.87 0.91 0.94 0.99 1.08 1.28 1.43 1.46 1.19 1.06 1.28 1.98 2.36 2.24 1.78 1.27 1.00 1.01 1.21 1.06 0.70
1.71 1.54 1.41 1.30 1.19 1.09 1.02 1.01 1.05 1.09 1.13 1.05 1.10 1.16 1.25 1.25 1.19 1.09 0.82 0.79 0.80 0.67 0.68 0.74 0.88 1.13 1.22 1.33 1.52 1.48 1.37 1.32 1.27 1.39 1.64 1.83 1.84 1.59 1.34 1.35 1.72 1.87 1.54
1.28 1.21 1.13 1.04 0.99 0.99 1.01 0.98 0.95 0.96 0.98 1.00 1.02 1.04 1.15 1.24 1.28 1.29 1.11 0.98 0.88 0.73 0.71 0.72 0.80 0.99 1.10 1.18 1.23 1.33 1.33 1.28 1.17 1.13 1.17 1.26 1.39 1.54 1.63 1.79 2.14 2.44 2.50
0.71 0.69 0.71 0.73 0.75 0.75 0.76 0.78 0.78 0.79 0.87 0.95 0.97 1.03 1.13 1.22 1.31 1.34 1.25 1.05 0.95 0.85 0.90 0.86 0.79 0.90 0.93 1.11 1.19 1.09 0.95 0.95 0.83 0.81 0.86 0.93 1.07 1.24 1.35 1.49 1.83 2.22 2.52
0.51 0.49 0.53 0.56 0.57 0.60 0.62 0.66 0.66 0.66 0.68 0.74 0.79 0.95 1.07 1.08 1.18 1.28 1.29 1.24 1.15 1.09 1.16 1.09 0.94 0.90 0.94 1.04 1.04 0.93 0.87 0.75 0.61 0.53 0.54 0.58 0.66 0.83 1.01 1.17 1.35 1.55 1.77
0.45 0.46 0.50 0.54 0.58 0.61 0.63 0.61 0.62 0.63 0.72 0.77 0.79 0.90 0.99 1.04 1.10 1.19 1.28 1.33 1.37 1.34 1.31 1.25 1.04 0.98 0.95 0.92 0.97 0.90 0.95 0.76 0.51 0.42 0.41 0.43 0.44 0.48 0.60 0.78 0.95 1.11 1.32
0.44 0.47 0.50 0.56 0.59 0.59 0.57 0.56 0.56 0.60 0.69 0.79 0.89 0.99 1.04 1.04 1.06 1.15 1.27 1.44 1.54 1.52 1.38 1.15 1.03 1.07 1.09 0.99 0.93 0.80 0.75 0.73 0.55 0.43 0.39 0.39 0.39 0.41 0.46 0.60 0.75 0.88 1.03
0.42 0.46 0.50 0.52 0.54 0.54 0.55 0.58 0.58 0.64 0.70 0.75 0.79 0.91 1.00 1.02 1.06 1.11 1.20 1.29 1.44 1.57 1.44 1.22 1.17 1.22 1.28 1.25 1.09 0.90 0.75 0.69 0.59 0.47 0.38 0.37 0.37 0.42 0.48 0.55 0.66 0.77 0.85
0.49 0.50 0.53 0.54 0.52 0.55 0.64 0.70 0.70 0.74 0.79 0.81 0.82 0.84 0.84 0.89 1.00 1.02 1.08 1.12 1.23 1.43 1.39 1.30 1.33 1.37 1.39 1.33 1.25 1.07 0.88 0.77 0.71 0.55 0.42 0.37 0.36 0.38 0.42 0.42 0.50 0.65 0.77
0.55 0.56 0.62 0.69 0.71 0.71 0.72 0.77 0.83 0.85 0.78 0.74 0.74 0.73 0.71 0.73 0.79 0.87 0.97 0.96 0.98 1.11 1.25 1.33 1.43 1.50 1.57 1.46 1.28 1.15 1.02 0.93 0.74 0.64 0.53 0.43 0.40 0.38 0.39 0.39 0.43 0.51 0.64
0.47 0.52 0.61 0.71 0.81 0.87 0.89 0.85 0.80 0.78 0.73 0.68 0.63 0.60 0.61 0.65 0.67 0.72 0.81 0.86 0.88 0.97 1.11 1.21 1.38 1.58 1.61 1.65 1.52 1.31 1.21 1.15 0.91 0.67 0.62 0.55 0.49 0.44 0.40 0.36 0.37 0.44 0.54
0.44 0.56 0.67 0.77 0.90 0.97 0.91 0.87 0.78 0.73 0.71 0.64 0.57 0.52 0.50 0.49 0.52 0.59 0.61 0.67 0.76 0.86 0.90 0.99 1.14 1.39 1.53 1.64 1.60 1.41 1.27 1.29 1.16 0.87 0.72 0.67 0.63 0.57 0.51 0.45 0.36 0.36 0.44
0.40 0.49 0.56 0.63 0.66 0.62 0.62 0.59 0.54 0.53 0.54 0.51 0.49 0.48 0.44 0.40 0.42 0.43 0.41 0.47 0.55 0.61 0.72 0.86 0.94 1.14 1.35 1.44 1.56 1.64 1.52 1.37 1.32 1.17 1.06 0.98 0.86 0.80 0.67 0.53 0.43 0.34 0.34
0.36 0.40 0.42 0.46 0.47 0.48 0.38 0.33 0.31 0.32 0.38 0.40 0.43 0.45 0.36 0.30 0.37 0.41 0.38 0.33 0.35 0.38 0.46 0.65 0.78 0.89 1.12 1.33 1.51 1.67 1.67 1.60 1.51 1.44 1.35 1.32 1.11 0.94 0.80 0.68 0.59 0.45 0.37
0.41 0.42 0.41 0.41 0.46 0.43 0.33 0.25 0.22 0.22 0.28 0.31 0.37 0.42 0.43 0.39 0.38 0.42 0.43 0.38 0.33 0.33 0.35 0.41 0.51 0.68 0.94 1.32 1.53 1.59 1.72 1.76 1.73 1.66 1.58 1.55 1.40 1.20 1.05 0.92 0.81 0.61 0.49
0.50 0.47 0.44 0.44 0.48 0.49 0.38 0.25 0.22 0.24 0.31 0.32 0.35 0.41 0.46 0.46 0.44 0.35 0.38 0.39 0.38 0.38 0.32 0.35 0.41 0.53 0.72 0.99 1.38 1.52 1.56 1.51 1.48 1.33 1.20 1.23 1.28 1.29 1.26 1.16 1.01 0.87 0.71
0.59 0.55 0.50 0.53 0.57 0.62 0.55 0.33 0.27 0.30 0.36 0.42 0.52 0.53 0.46 0.41 0.39 0.32 0.36 0.43 0.40 0.37 0.40 0.41 0.41 0.43 0.48 0.64 0.94 1.18 1.23 1.20 1.11 1.12 0.93 0.87 0.90 0.98 1.10 1.06 0.96 0.90 0.84

GEFSMA_prec_meanprecacc_120.txt.gz
Total_Precipitation_Accumulation
1.42 1.46 1.46 1.50 1.43 1.54 1.75 1.95 1.90 1.94 1.97 1.84 1.58 1.43 1.42 1.41 1.42 1.43 1.44 1.69 1.58 1.53 1.91 2.03 1.85 1.65 1.51 1.27 1.04 0.86 0.76 0.72 0.65 0.50 0.43 0.47 0.55 0.61 0.55 0.48 0.44 0.41 0.34
1.76 1.68 1.51 1.55 1.50 1.57 1.67 1.86 1.95 2.22 2.16 2.06 1.64 1.48 1.50 1.58 1.59 1.64 1.65 1.90 1.77 1.53 1.70 1.86 1.96 1.89 1.73 1.56 1.32 1.11 0.92 0.82 0.72 0.52 0.44 0.42 0.49 0.59 0.57 0.55 0.51 0.48 0.40
1.93 1.84 1.64 1.53 1.59 1.67 1.74 1.79 1.92 2.19 2.12 1.99 1.71 1.61 1.54 1.45 1.33 1.37 1.48 1.63 1.57 1.49 1.55 1.64 1.80 1.84 1.81 1.82 1.69 1.52 1.24 1.00 0.85 0.66 0.50 0.40 0.35 0.40 0.41 0.46 0.49 0.49 0.42
1.92 1.86 1.64 1.47 1.69 1.70 1.75 1.88 1.96 2.09 2.16 2.17 1.89 1.65 1.54 1.44 1.24 1.26 1.26 1.29 1.37 1.15 1.34 1.55 1.68 1.73 1.93 2.06 2.10 2.08 1.76 1.33 1.02 0.83 0.64 0.47 0.36 0.34 0.30 0.30 0.36 0.36 0.30
1.79 1.83 1.57 1.45 1.70 1.86 1.84 1.72 1.98 2.18 2.14 2.16 1.87 1.64 1.40 1.24 1.08 1.05 1.09 1.06 1.10 1.08 1.10 1.21 1.33 1.44 1.83 2.27 2.49 2.51 2.33 1.84 1.33 1.06 0.90 0.74 0.57 0.46 0.34 0.27 0.28 0.25 0.22
1.59 1.79 1.52 1.51 1.77 1.83 1.79 1.87 2.02 2.18 2.06 2.09 1.89 1.46 1.20 0.95 0.91 0.82 0.77 0.80 0.76 0.71 0.79 0.99 1.28 1.21 1.54 1.89 2.12 2.36 2.55 2.39 1.87 1.39 1.18 1.04 0.90 0.70 0.49 0.36 0.30 0.27 0.22
1.63 1.90 1.66 1.67 1.72 1.67 1.66 1.85 1.99 1.92 1.80 2.21 2.13 1.42 0.92 0.73 0.64 0.49 0.53 0.55 0.50 0.54 0.72 0.98 1.16 1.22 1.18 1.27 1.43 1.67 2.11 2.37 2.24 1.82 1.54 1.35 1.22 0.94 0.69 0.56 0.41 0.32 0.25
1.61 1.71 1.73 1.66 1.66 1.63 1.49 1.59 1.84 1.72 1.44 1.87 2.04 1.82 1.20 0.76 0.54 0.39 0.41 0.41 0.45 0.59 0.66 0.74 0.95 1.14 1.13 1.27 1.20 1.13 1.51 1.97 2.28 2.23 1.94 1.61 1.32 1.02 0.82 0.70 0.54 0.42 0.33
1.64 1.72 1.62 1.48 1.44 1.45 1.33 1.34 1.54 1.61 1.41 1.46 1.81 2.07 1.59 0.98 0.73 0.49 0.50 0.53 0.64 0.76 0.76 0.81 0.89 1.01 1.09 1.27 1.39 1.39 1.23 1.39 1.90 2.45 2.43 1.97 1.44 1.08 0.90 0.85 0.78 0.60 0.47
1.77 1.67 1.51 1.34 1.19 1.16 1.12 1.09 1.26 1.38 1.39 1.19 1.33 1.47 1.44 1.34 1.21 0.79 0.58 0.62 0.77 0.84 0.87 0.91 0.94 0.99 1.08 1.28 1.43 1.46 1.19 1.07 1.30 2.02 2.43 2.33 1.86 1.34 1.07 1.09 1.31 1.17 0.80
1.72 1.55 1.42 1.30 1.19 1.09 1.02 1.01 1.05 1.09 1.13 1.05 1.10 1.16 1.25 1.25 1.19 1.09 0.82 0.79 0.80 0.67 0.68 0.74 0.88 1.14 1.23 1.33 1.52 1.48 1.38 1.32 1.28 1.40 1.66 1.87 1.90 1.65 1.41 1.41 1.81 1.99 1.68
1.29 1.22 1.14 1.05 1.00 0.99 1.01 0.98 0.95 0.96 0.98 1.00 1.02 1.04 1.15 1.24 1.28 1.29 1.11 0.98 0.88 0.73 0.71 0.72 0.80 0.99 1.10 1.18 1.24 1.34 1.33 1.28 1.17 1.14 1.18 1.27 1.41 1.57 1.69 1.85 2.22 2.54 2.62
0.73 0.70 0.73 0.74 0.75 0.75 0.76 0.79 0.78 0.79 0.87 0.95 0.97 1.03 1.13 1.22 1.31 1.34 1.25 1.05 0.95 0.85 0.90 0.86 0.79 0.90 0.93 1.11 1.19 1.09 0.95 0.95 0.83 0.81 0.86 0.93 1.08 1.25 1.37 1.52 1.89 2.29 2.61
0.52 0.51 0.54 0.56 0.58 0.61 0.63 0.66 0.66 0.66 0.68 0.74 0.79 0.95 1.07 1.08 1.18 1.28 1.29 1.24 1.15 1.09 1.16 1.09 0.94 0.90 0.94 1.04 1.04 0.93 0.87 0.75 0.61 0.53 0.54 0.58 0.66 0.83 1.01 1.18 1.37 1.58 1.81
0.46 0.47 0.51 0.55 0.58 0.62 0.63 0.62 0.62 0.63 0.72 0.77 0.79 0.90 0.99 1.04 1.10 1.19 1.28 1.33 1.37 1.34 1.31 1.25 1.04 0.98 0.95 0.92 0.97 0.90 0.95 0.76 0.51 0.42 0.41 0.43 0.44 0.48 0.60 0.78 0.95 1.11 1.33
0.46 0.49 0.50 0.56 0.60 0.60 0.58 0.57 0.57 0.60 0.69 0.79 0.89 0.99 1.04 1.04 1.06 1.15 1.27 1.44 1.54 1.52 1.38 1.15 1.04 1.07 1.09 0.99 0.93 0.80 0.75 0.73 0.55 0.43 0.39 0.39 0.39 0.41 0.46 0.60 0.75 0.88 1.04
0.45 0.48 0.51 0.53 0.54 0.55 0.56 0.59 0.59 0.64 0.70 0.75 0.79 0.91 1.00 1.03 1.07 1.11 1.20 1.29 1.44 1.57 1.44 1.22 1.17 1.22 1.28 1.25 1.09 0.90 0.75 0.69 0.59 0.47 0.38 0.37 0.37 0.42 0.48 0.55 0.66 0.77 0.85
0.52 0.52 0.55 0.56 0.53 0.56 0.64 0.71 0.70 0.74 0.80 0.81 0.82 0.85 0.84 0.89 1.00 1.02 1.08 1.12 1.23 1.43 1.39 1.30 1.33 1.37 1.39 1.33 1.25 1.07 0.88 0.77 0.71 0.55 0.42 0.37 0.36 0.38 0.42 0.42 0.50 0.65 0.77
0.57 0.58 0.63 0.71 0.73 0.73 0.73 0.78 0.84 0.86 0.79 0.75 0.75 0.75 0.72 0.74 0.79 0.88 0.99 0.97 0.99 1.12 1.26 1.33 1.43 1.50 1.57 1.46 1.28 1.15 1.02 0.93 0.74 0.64 0.53 0.43 0.40 0.38 0.39 0.39 0.43 0.51 0.64
0.50 0.55 0.63 0.74 0.84 0.89 0.91 0.87 0.82 0.80 0.75 0.70 0.65 0.61 0.63 0.66 0.68 0.73 0.83 0.88 0.90 0.99 1.12 1.21 1.38 1.58 1.61 1.65 1.52 1.31 1.21 1.15 0.91 0.67 0.62 0.55 0.49 0.44 0.40 0.36 0.37 0.44 0.54
0.49 0.60 0.72 0.81 0.95 1.01 0.95 0.91 0.82 0.77 0.74 0.66 0.58 0.53 0.52 0.50 0.53 0.60 0.62 0.69 0.77 0.87 0.91 1.00 1.15 1.39 1.53 1.64 1.60 1.41 1.27 1.29 1.16 0.87 0.72 0.67 0.64 0.57 0.51 0.45 0.36 0.36 0.44
0.46 0.54 0.61 0.68 0.71 0.66 0.67 0.63 0.58 0.55 0.56 0.52 0.49 0.49 0.45 0.40 0.43 0.44 0.42 0.48 0.56 0.63 0.73 0.87 0.95 1.14 1.35 1.45 1.57 1.65 1.52 1.37 1.32 1.17 1.06 0.98 0.86 0.80 0.67 0.53 0.43 0.34 0.34
0.47 0.50 0.49 0.52 0.52 0.51 0.42 0.36 0.34 0.34 0.39 0.41 0.43 0.45 0.36 0.31 0.37 0.41 0.39 0.35 0.37 0.40 0.47 0.66 0.79 0.89 1.12 1.33 1.52 1.68 1.68 1.61 1.51 1.44 1.35 1.32 1.11 0.94 0.81 0.68 0.59 0.45 0.37
0.49 0.49 0.48 0.47 0.51 0.47 0.36 0.28 0.25 0.24 0.29 0.32 0.38 0.43 0.44 0.39 0.39 0.43 0.44 0.39 0.34 0.33 0.35 0.41 0.52 0.68 0.95 1.32 1.54 1.60 1.73 1.77 1.73 1.66 1.58 1.56 1.40 1.21 1.05 0.92 0.81 0.62 0.49
0.65 0.60 0.55 0.53 0.55 0.54 0.43 0.30 0.26 0.27 0.33 0.34 0.38 0.43 0.48 0.47 0.45 0.36 0.39 0.40 0.38 0.38 0.32 0.36 0.42 0.54 0.72 0.99 1.39 1.53 1.57 1.52 1.48 1.33 1.21 1.24 1.29 1.29 1.26 1.16 1.01 0.87 0.71
0.84 0.76 0.68 0.68 0.69 0.72 0.64 0.41 0.34 0.36 0.42 0.48 0.57 0.58 0.50 0.45 0.41 0.35 0.38 0.44 0.41 0.37 0.40 0.41 0.42 0.43 0.49 0.65 0.94 1.19 1.24 1.21 1.12 1.12 0.93 0.88 0.91 0.98 1.10 1.06 0.97 0.90 0.84

GEFSMA_prec_meanprecacc_126.txt.gz
Total_Precipitation_Accumulation
1.44 1.48 1.48 1.52 1.45 1.56 1.77 1.96 1.92 1.96 1.99 1.85 1.59 1.44 1.44 1.42 1.44 1.44 1.46 1.72 1.62 1.59 1.97 2.10 1.92 1.72 1.59 1.34 1.09 0.90 0.79 0.74 0.67 0.52 0.44 0.48 0.56 0.62 0.57 0.49 0.45 0.42 0.35
1.79 1.72 1.55 1.57 1.52 1.59 1.69 1.89 1.99 2.24 2.18 2.08 1.67 1.49 1.52 1.62 1.62 1.66 1.67 1.93 1.82 1.59 1.76 1.95 2.06 1.98 1.83 1.65 1.40 1.17 0.99 0.87 0.76 0.55 0.46 0.44 0.51 0.61 0.59 0.58 0.53 0.49 0.40
1.96 1.88 1.68 1.56 1.62 1.69 1.76 1.81 1.95 2.22 2.14 2.01 1.72 1.62 1.55 1.47 1.35 1.40 1.51 1.65 1.60 1.53 1.60 1.72 1.89 1.95 1.94 1.92 1.79 1.62 1.34 1.10 0.94 0.73 0.56 0.44 0.39 0.44 0.45 0.50 0.52 0.51 0.43
1.95 1.89 1.67 1.50 1.71 1.73 1.77 1.90 1.99 2.13 2.19 2.19 1.92 1.67 1.56 1.45 1.27 1.29 1.28 1.31 1.39 1.18 1.39 1.62 1.75 1.81 2.03 2.17 2.23 2.23 1.89 1.44 1.11 0.92 0.72 0.54 0.42 0.39 0.35 0.34 0.39 0.38 0.32
1.83 1.86 1.59 1.48 1.72 1.87 1.87 1.74 2.00 2.21 2.16 2.17 1.89 1.65 1.42 1.27 1.11 1.07 1.11 1.08 1.12 1.10 1.14 1.26 1.40 1.51 1.91 2.37 2.65 2.69 2.50 1.99 1.46 1.17 1.01 0.85 0.66 0.53 0.39 0.31 0.31 0.28 0.23
1.62 1.81 1.54 1.53 1.80 1.85 1.81 1.88 2.03 2.19 2.07 2.10 1.90 1.48 1.21 0.95 0.92 0.83 0.78 0.82 0.78 0.73 0.81 1.03 1.31 1.26 1.62 2.00 2.25 2.50 2.70 2.53 2.00 1.51 1.31 1.18 1.03 0.81 0.58 0.43 0.36 0.32 0.26
1.67 1.93 1.69 1.69 1.74 1.68 1.68 1.86 2.00 1.93 1.80 2.21 2.13 1.43 0.93 0.73 0.65 0.51 0.54 0.56 0.51 0.55 0.73 0.99 1.18 1.25 1.22 1.33 1.49 1.75 2.21 2.50 2.36 1.93 1.65 1.47 1.35 1.06 0.80 0.64 0.48 0.38 0.30
1.64 1.74 1.76 1.67 1.67 1.64 1.50 1.59 1.84 1.72 1.44 1.87 2.04 1.82 1.20 0.76 0.55 0.39 0.41 0.42 0.46 0.59 0.67 0.74 0.95 1.15 1.14 1.29 1.21 1.17 1.57 2.06 2.37 2.33 2.04 1.71 1.41 1.12 0.93 0.81 0.63 0.50 0.39
1.66 1.74 1.64 1.49 1.45 1.45 1.33 1.34 1.54 1.61 1.41 1.46 1.81 2.07 1.59 0.98 0.73 0.49 0.50 0.53 0.64 0.76 0.77 0.82 0.89 1.01 1.09 1.28 1.39 1.40 1.26 1.43 1.95 2.52 2.51 2.05 1.51 1.15 0.97 0.93 0.88 0.70 0.56
1.81 1.70 1.53 1.35 1.20 1.16 1.13 1.10 1.26 1.38 1.39 1.19 1.34 1.47 1.44 1.34 1.21 0.80 0.59 0.62 0.77 0.84 0.87 0.92 0.94 1.00 1.09 1.29 1.43 1.46 1.20 1.08 1.32 2.05 2.48 2.38 1.91 1.39 1.13 1.16 1.40 1.29 0.92
1.76 1.58 1.45 1.31 1.20 1.10 1.03 1.01 1.06 1.09 1.13 1.05 1.10 1.16 1.25 1.25 1.19 1.09 0.82 0.79 0.80 0.67 0.68 0.74 0.88 1.14 1.23 1.33 1.52 1.48 1.38 1.32 1.28 1.41 1.68 1.89 1.94 1.70 1.46 1.47 1.89 2.10 1.80
1.32 1.24 1.15 1.06 1.01 1.01 1.02 0.99 0.96 0.97 0.99 1.01 1.02 1.04 1.15 1.24 1.28 1.29 1.11 0.98 0.88 0.73 0.71 0.73 0.80 0.99 1.10 1.18 1.24 1.34 1.33 1.28 1.17 1.14 1.18 1.28 1.42 1.59 1.72 1.90 2.28 2.61 2.73
0.74 0.71 0.73 0.75 0.76 0.77 0.78 0.80 0.79 0.79 0.88 0.95 0.97 1.03 1.13 1.22 1.31 1.34 1.25 1.05 0.95 0.85 0.90 0.86 0.79 0.90 0.93 1.11 1.19 1.09 0.96 0.95 0.83 0.81 0.86 0.93 1.08 1.26 1.38 1.54 1.91 2.33 2.67
0.53 0.52 0.55 0.58 0.59 0.62 0.65 0.68 0.67 0.67 0.69 0.75 0.79 0.95 1.07 1.08 1.18 1.28 1.29 1.24 1.15 1.09 1.16 1.09 0.94 0.90 0.94 1.04 1.04 0.93 0.87 0.75 0.61 0.54 0.54 0.58 0.66 0.83 1.01 1.18 1.37 1.59 1.83
0.48 0.49 0.52 0.57 0.60 0.63 0.65 0.63 0.63 0.64 0.72 0.77 0.80 0.90 0.99 1.04 1.10 1.19 1.28 1.33 1.37 1.34 1.31 1.25 1.04 0.98 0.95 0.92 0.97 0.90 0.95 0.76 0.51 0.42 0.41 0.43 0.44 0.48 0.60 0.78 0.95 1.11 1.33
0.49 0.50 0.51 0.57 0.61 0.60 0.59 0.58 0.58 0.61 0.70 0.80 0.89 1.00 1.04 1.04 1.06 1.15 1.28 1.44 1.54 1.52 1.38 1.15 1.04 1.07 1.09 0.99 0.93 0.80 0.75 0.73 0.55 0.43 0.39 0.39 0.39 0.41 0.46 0.60 0.75 0.88 1.04
0.47 0.50 0.53 0.54 0.55 0.56 0.57 0.60 0.60 0.66 0.71 0.76 0.80 0.92 1.00 1.03 1.07 1.11 1.21 1.30 1.45 1.57 1.44 1.22 1.17 1.22 1.28 1.25 1.09 0.90 0.75 0.69 0.59 0.47 0.38 0.37 0.37 0.42 0.48 0.55 0.66 0.77 0.85
0.55 0.56 0.58 0.58 0.55 0.58 0.66 0.73 0.72 0.76 0.81 0.82 0.83 0.85 0.84 0.90 1.01 1.02 1.08 1.13 1.24 1.44 1.40 1.30 1.33 1.37 1.39 1.33 1.25 1.07 0.88 0.77 0.71 0.55 0.42 0.37 0.36 0.38 0.42 0.42 0.50 0.65 0.77
0.60 0.62 0.66 0.73 0.74 0.75 0.75 0.79 0.86 0.87 0.80 0.76 0.76 0.75 0.72 0.75 0.80 0.88 0.99 0.97 1.00 1.12 1.26 1.33 1.43 1.50 1.57 1.46 1.29 1.15 1.02 0.93 0.74 0.64 0.53 0.43 0.40 0.38 0.39 0.39 0.43 0.51 0.64
0.52 0.57 0.65 0.76 0.86 0.91 0.93 0.89 0.84 0.82 0.77 0.71 0.65 0.62 0.63 0.66 0.69 0.74 0.84 0.89 0.92 1.01 1.14 1.23 1.39 1.59 1.61 1.65 1.52 1.31 1.21 1.15 0.91 0.67 0.62 0.55 0.49 0.44 0.40 0.36 0.37 0.44 0.54
0.51 0.62 0.74 0.83 0.98 1.05 0.98 0.94 0.86 0.81 0.79 0.70 0.62 0.56 0.54 0.52 0.54 0.61 0.63 0.70 0.79 0.89 0.92 1.01 1.15 1.40 1.53 1.64 1.60 1.41 1.27 1.29 1.16 0.87 0.72 0.67 0.64 0.57 0.51 0.45 0.36 0.36 0.44
0.50 0.57 0.64 0.71 0.76 0.71 0.71 0.68 0.63 0.60 0.60 0.57 0.53 0.52 0.47 0.41 0.43 0.44 0.42 0.48 0.57 0.63 0.73 0.87 0.95 1.15 1.35 1.45 1.57 1.65 1.52 1.37 1.32 1.17 1.06 0.98 0.86 0.80 0.67 0.53 0.43 0.34 0.34
0.51 0.56 0.56 0.58 0.57 0.57 0.48 0.41 0.40 0.40 0.44 0.45 0.47 0.48 0.38 0.32 0.39 0.43 0.40 0.36 0.38 0.41 0.49 0.67 0.80 0.89 1.12 1.33 1.52 1.68 1.68 1.61 1.51 1.44 1.35 1.32 1.11 0.95 0.81 0.68 0.59 0.45 0.37
0.56 0.57 0.56 0.55 0.58 0.54 0.43 0.34 0.31 0.31 0.35 0.36 0.41 0.46 0.46 0.42 0.43 0.46 0.47 0.41 0.36 0.35 0.37 0.44 0.53 0.69 0.95 1.32 1.54 1.60 1.73 1.77 1.73 1.66 1.58 1.56 1.40 1.21 1.05 0.92 0.82 0.62 0.50
0.76 0.70 0.65 0.63 0.64 0.62 0.50 0.36 0.33 0.34 0.39 0.39 0.41 0.46 0.51 0.50 0.48 0.40 0.42 0.42 0.40 0.40 0.35 0.38 0.43 0.55 0.72 1.00 1.40 1.54 1.58 1.52 1.48 1.33 1.21 1.24 1.29 1.29 1.26 1.16 1.01 0.87 0.71
1.01 0.93 0.83 0.81 0.80 0.80 0.71 0.48 0.42 0.43 0.48 0.54 0.64 0.64 0.57 0.51 0.47 0.40 0.42 0.48 0.43 0.40 0.43 0.44 0.45 0.45 0.50 0.66 0.96 1.21 1.26 1.23 1.13 1.13 0.93 0.88 0.91 0.98 1.10 1.06 0.97 0.90 0.84

GEFSMA_prec_meanprecacc_132.txt.gz
Total_Precipitation_Accumulation
1.47 1.51 1.51 1.56 1.48 1.59 1.79 1.98 1.94 1.98 2.02 1.89 1.62 1.48 1.48 1.44 1.45 1.46 1.50 1.76 1.67 1.64 2.03 2.15 1.98 1.78 1.63 1.38 1.14 0.95 0.85 0.79 0.70 0.54 0.45 0.49 0.58 0.65 0.60 0.51 0.47 0.44 0.35
1.84 1.76 1.59 1.62 1.57 1.63 1.73 1.91 2.01 2.28 2.23 2.13 1.71 1.54 1.56 1.64 1.64 1.69 1.71 1.98 1.87 1.64 1.82 2.02 2.12 2.04 1.88 1.70 1.44 1.22 1.05 0.94 0.81 0.58 0.48 0.46 0.52 0.63 0.62 0.61 0.55 0.51 0.42
2.02 1.94 1.75 1.61 1.66 1.73 1.81 1.84 1.97 2.25 2.18 2.06 1.78 1.67 1.58 1.50 1.40 1.46 1.55 1.71 1.66 1.59 1.66 1.79 1.99 2.04 2.00 1.98 1.85 1.68 1.40 1.17 1.00 0.76 0.58 0.46 0.41 0.47 0.49 0.53 0.54 0.53 0.44
2.01 1.97 1.75 1.57 1.76 1.77 1.83 1.95 2.02 2.16 2.24 2.26 1.98 1.72 1.60 1.50 1.35 1.35 1.33 1.36 1.45 1.23 1.45 1.67 1.81 1.89 2.12 2.27 2.32 2.33 1.97 1.51 1.17 0.97 0.76 0.57 0.46 0.42 0.37 0.37 0.43 0.41 0.34
1.88 1.94 1.69 1.56 1.77 1.92 1.92 1.77 2.04 2.25 2.23 2.25 1.94 1.70 1.47 1.33 1.18 1.13 1.16 1.12 1.16 1.13 1.19 1.30 1.43 1.54 1.97 2.46 2.74 2.81 2.62 2.09 1.53 1.23 1.07 0.90 0.71 0.57 0.42 0.34 0.34 0.30 0.26
1.68 1.89 1.61 1.59 1.84 1.91 1.86 1.93 2.10 2.25 2.13 2.17 1.93 1.51 1.26 1.00 0.96 0.88 0.83 0.86 0.81 0.75 0.84 1.07 1.38 1.30 1.66 2.05 2.32 2.57 2.77 2.60 2.05 1.56 1.37 1.24 1.09 0.86 0.62 0.47 0.40 0.35 0.29
1.73 2.01 1.75 1.76 1.80 1.74 1.74 1.92 2.06 1.98 1.84 2.24 2.17 1.47 0.97 0.76 0.68 0.53 0.57 0.59 0.53 0.57 0.75 1.04 1.25 1.33 1.28 1.35 1.52 1.78 2.25 2.55 2.41 1.98 1.71 1.54 1.42 1.13 0.84 0.68 0.52 0.42 0.34
1.70 1.80 1.82 1.74 1.73 1.71 1.56 1.64 1.88 1.77 1.47 1.90 2.06 1.85 1.23 0.79 0.56 0.40 0.43 0.44 0.48 0.61 0.68 0.76 1.01 1.23 1.22 1.36 1.25 1.19 1.61 2.10 2.42 2.39 2.11 1.77 1.48 1.18 0.98 0.85 0.68 0.54 0.44
1.72 1.80 1.70 1.55 1.51 1.50 1.38 1.39 1.59 1.66 1.45 1.48 1.83 2.08 1.60 1.01 0.76 0.50 0.51 0.53 0.66 0.78 0.79 0.83 0.91 1.05 1.13 1.33 1.46 1.43 1.28 1.45 1.98 2.59 2.57 2.10 1.56 1.19 1.01 0.98 0.95 0.76 0.61
1.88 1.77 1.58 1.41 1.25 1.21 1.17 1.13 1.29 1.42 1.43 1.21 1.35 1.48 1.44 1.35 1.22 0.81 0.60 0.63 0.78 0.85 0.89 0.93 0.95 1.01 1.11 1.32 1.47 1.48 1.20 1.09 1.33 2.08 2.50 2.40 1.93 1.41 1.15 1.19 1.46 1.36 0.97
1.84 1.64 1.50 1.37 1.26 1.15 1.08 1.05 1.10 1.13 1.16 1.07 1.11 1.18 1.25 1.26 1.20 1.11 0.84 0.80 0.80 0.67 0.69 0.75 0.89 1.15 1.25 1.34 1.55 1.50 1.38 1.32 1.29 1.42 1.69 1.90 1.95 1.72 1.48 1.50 1.92 2.14 1.86
1.41 1.33 1.21 1.12 1.07 1.07 1.07 1.04 1.00 1.01 1.02 1.04 1.04 1.05 1.16 1.25 1.29 1.30 1.13 0.99 0.89 0.74 0.71 0.73 0.81 1.00 1.11 1.19 1.24 1.34 1.33 1.28 1.17 1.14 1.18 1.28 1.43 1.60 1.73 1.92 2.31 2.65 2.77
0.83 0.79 0.80 0.81 0.81 0.82 0.82 0.84 0.82 0.82 0.91 0.98 1.00 1.05 1.14 1.23 1.31 1.34 1.25 1.05 0.96 0.86 0.90 0.86 0.79 0.90 0.93 1.11 1.19 1.09 0.96 0.95 0.83 0.81 0.86 0.93 1.08 1.26 1.38 1.54 1.92 2.35 2.69
0.60 0.60 0.62 0.63 0.63 0.65 0.67 0.71 0.69 0.69 0.71 0.77 0.80 0.97 1.08 1.08 1.18 1.28 1.29 1.24 1.15 1.09 1.16 1.09 0.94 0.90 0.95 1.04 1.04 0.94 0.87 0.75 0.61 0.54 0.54 0.58 0.66 0.83 1.01 1.18 1.37 1.59 1.83
0.56 0.57 0.59 0.62 0.64 0.67 0.68 0.67 0.65 0.66 0.74 0.79 0.81 0.91 1.00 1.04 1.10 1.19 1.28 1.33 1.38 1.34 1.31 1.25 1.04 0.98 0.95 0.93 0.97 0.91 0.95 0.76 0.51 0.42 0.41 0.43 0.44 0.48 0.60 0.78 0.95 1.11 1.33
0.58 0.58 0.57 0.62 0.65 0.64 0.62 0.61 0.59 0.62 0.72 0.81 0.90 1.01 1.05 1.04 1.06 1.15 1.28 1.44 1.54 1.52 1.38 1.15 1.04 1.07 1.09 0.99 0.93 0.80 0.76 0.73 0.55 0.43 0.39 0.39 0.39 0.41 0.46 0.60 0.75 0.88 1.04
0.56 0.57 0.60 0.60 0.60 0.60 0.60 0.62 0.62 0.67 0.73 0.78 0.82 0.93 1.02 1.04 1.07 1.12 1.21 1.30 1.45 1.57 1.44 1.22 1.17 1.22 1.28 1.25 1.09 0.90 0.76 0.69 0.59 0.47 0.38 0.37 0.37 0.42 0.48 0.55 0.66 0.77 0.85
0.62 0.63 0.64 0.63 0.59 0.60 0.69 0.75 0.74 0.78 0.83 0.84 0.85 0.87 0.85 0.91 1.02 1.03 1.09 1.13 1.24 1.44 1.40 1.31 1.33 1.37 1.40 1.34 1.25 1.07 0.88 0.77 0.72 0.56 0.42 0.37 0.36 0.38 0.42 0.42 0.50 0.65 0.77
0.67 0.67 0.71 0.78 0.79 0.78 0.78 0.82 0.88 0.89 0.82 0.77 0.77 0.77 0.74 0.76 0.81 0.89 1.00 0.98 1.01 1.13 1.27 1.33 1.43 1.51 1.58 1.47 1.29 1.15 1.02 0.93 0.74 0.64 0.53 0.43 0.40 0.38 0.39 0.39 0.43 0.51 0.64
0.59 0.63 0.70 0.82 0.91 0.96 0.97 0.91 0.86 0.84 0.78 0.72 0.67 0.64 0.65 0.68 0.71 0.76 0.86 0.90 0.93 1.02 1.15 1.24 1.40 1.60 1.62 1.65 1.53 1.31 1.21 1.15 0.91 0.67 0.62 0.55 0.49 0.44 0.40 0.36 0.37 0.44 0.54
0.55 0.67 0.79 0.88 1.03 1.09 1.02 0.97 0.88 0.84 0.82 0.72 0.64 0.58 0.55 0.53 0.56 0.63 0.65 0.72 0.81 0.91 0.94 1.03 1.17 1.41 1.54 1.65 1.61 1.42 1.28 1.29 1.17 0.87 0.72 0.67 0.64 0.57 0.51 0.45 0.36 0.36 0.44
0.56 0.62 0.69 0.77 0.82 0.75 0.75 0.72 0.66 0.64 0.64 0.61 0.56 0.55 0.50 0.44 0.45 0.46 0.43 0.50 0.58 0.65 0.75 0.89 0.96 1.16 1.36 1.47 1.59 1.67 1.54 1.39 1.33 1.18 1.08 0.99 0.86 0.80 0.67 0.53 0.43 0.34 0.34
0.56 0.61 0.62 0.65 0.65 0.64 0.53 0.45 0.43 0.44 0.48 0.50 0.52 0.53 0.42 0.36 0.42 0.45 0.42 0.38 0.39 0.42 0.50 0.69 0.81 0.91 1.14 1.36 1.54 1.71 1.71 1.63 1.53 1.45 1.37 1.33 1.12 0.95 0.81 0.68 0.59 0.45 0.37
0.61 0.62 0.61 0.60 0.63 0.59 0.47 0.38 0.36 0.35 0.40 0.43 0.48 0.53 0.54 0.51 0.50 0.52 0.52 0.45 0.39 0.37 0.39 0.45 0.54 0.71 0.97 1.35 1.57 1.63 1.76 1.79 1.75 1.68 1.60 1.57 1.41 1.21 1.05 0.92 0.82 0.62 0.50
0.78 0.73 0.70 0.68 0.68 0.65 0.53 0.39 0.36 0.38 0.46 0.48 0.51 0.54 0.58 0.57 0.55 0.47 0.48 0.47 0.46 0.45 0.39 0.41 0.46 0.57 0.74 1.02 1.42 1.55 1.60 1.55 1.51 1.35 1.23 1.26 1.29 1.30 1.27 1.16 1.02 0.87 0.71
1.07 0.99 0.88 0.86 0.84 0.85 0.75 0.51 0.45 0.46 0.51 0.57 0.67 0.68 0.61 0.56 0.53 0.47 0.49 0.54 0.50 0.46 0.49 0.50 0.49 0.49 0.53 0.68 0.98 1.23 1.29 1.27 1.17 1.16 0.96 0.91 0.94 1.01 1.13 1.07 0.97 0.91 0.85

GEFSMA_prec_meanprecacc_138.txt.gz
Total_Precipitation_Accumulation
1.52 1.57 1.58 1.62 1.53 1.64 1.85 2.03 1.98 2.05 2.11 1.92 1.64 1.50 1.52 1.50 1.55 1.55 1.54 1.77 1.68 1.65 2.05 2.18 2.00 1.80 1.66 1.39 1.15 0.96 0.86 0.81 0.72 0.54 0.46 0.50 0.58 0.66 0.61 0.51 0.48 0.45 0.36
1.88 1.81 1.65 1.67 1.61 1.66 1.78 1.97 2.05 2.32 2.27 2.18 1.74 1.56 1.58 1.67 1.69 1.73 1.74 2.00 1.88 1.65 1.83 2.03 2.14 2.07 1.91 1.72 1.46 1.24 1.07 0.96 0.83 0.59 0.49 0.47 0.53 0.63 0.63 0.62 0.56 0.52 0.42
2.07 1.99 1.81 1.67 1.72 1.77 1.86 1.90 2.02 2.29 2.23 2.10 1.82 1.70 1.61 1.53 1.44 1.49 1.58 1.74 1.69 1.60 1.67 1.80 2.01 2.07 2.03 1.99 1.87 1.71 1.42 1.19 1.01 0.78 0.60 0.48 0.42 0.48 0.50 0.54 0.55 0.53 0.45
2.06 2.02 1.81 1.63 1.81 1.81 1.86 1.99 2.07 2.20 2.28 2.31 2.03 1.77 1.64 1.54 1.38 1.39 1.35 1.39 1.49 1.26 1.46 1.67 1.82 1.90 2.15 2.29 2.35 2.36 1.99 1.53 1.18 0.98 0.78 0.59 0.47 0.43 0.39 0.39 0.44 0.42 0.34
1.92 1.99 1.75 1.64 1.83 1.97 1.94 1.79 2.08 2.30 2.28 2.30 1.98 1.74 1.51 1.35 1.22 1.18 1.21 1.15 1.19 1.16 1.23 1.32 1.44 1.55 1.99 2.48 2.77 2.83 2.64 2.10 1.55 1.25 1.08 0.92 0.73 0.59 0.43 0.35 0.36 0.32 0.27
1.72 1.94 1.67 1.66 1.89 1.96 1.91 1.98 2.16 2.30 2.18 2.22 1.97 1.56 1.30 1.03 0.98 0.92 0.86 0.89 0.84 0.77 0.88 1.11 1.40 1.31 1.66 2.07 2.34 2.58 2.79 2.63 2.08 1.58 1.38 1.26 1.11 0.89 0.64 0.48 0.41 0.38 0.31
1.79 2.06 1.82 1.85 1.87 1.80 1.79 1.97 2.10 2.02 1.88 2.28 2.23 1.54 1.03 0.79 0.70 0.56 0.59 0.61 0.55 0.58 0.79 1.08 1.28 1.36 1.29 1.36 1.53 1.79 2.27 2.57 2.43 1.99 1.72 1.55 1.44 1.14 0.85 0.69 0.54 0.44 0.36
1.77 1.84 1.90 1.81 1.80 1.78 1.62 1.71 1.93 1.82 1.52 1.93 2.10 1.93 1.31 0.87 0.63 0.43 0.45 0.46 0.50 0.63 0.71 0.78 1.03 1.26 1.24 1.39 1.26 1.19 1.62 2.12 2.44 2.41 2.12 1.79 1.50 1.20 0.99 0.87 0.69 0.55 0.45
1.79 1.87 1.77 1.61 1.57 1.54 1.45 1.45 1.62 1.70 1.50 1.52 1.85 2.12 1.66 1.09 0.83 0.56 0.54 0.56 0.68 0.81 0.80 0.84 0.93 1.06 1.15 1.37 1.49 1.44 1.28 1.45 2.00 2.61 2.60 2.12 1.57 1.20 1.03 1.00 0.97 0.78 0.62
1.97 1.85 1.65 1.47 1.30 1.25 1.24 1.17 1.34 1.45 1.48 1.26 1.38 1.50 1.46 1.38 1.26 0.88 0.65 0.66 0.81 0.87 0.91 0.94 0.96 1.03 1.14 1.35 1.50 1.49 1.20 1.09 1.34 2.09 2.52 2.42 1.94 1.42 1.16 1.21 1.48 1.39 1.00
1.96 1.74 1.58 1.44 1.31 1.20 1.14 1.11 1.17 1.18 1.20 1.11 1.15 1.21 1.27 1.28 1.22 1.14 0.88 0.84 0.83 0.69 0.71 0.77 0.91 1.18 1.28 1.37 1.57 1.50 1.38 1.33 1.29 1.43 1.69 1.91 1.96 1.72 1.49 1.51 1.94 2.17 1.89
1.52 1.43 1.32 1.21 1.14 1.13 1.14 1.10 1.06 1.06 1.07 1.08 1.08 1.08 1.18 1.26 1.31 1.32 1.15 1.02 0.92 0.77 0.73 0.74 0.82 1.01 1.12 1.20 1.25 1.34 1.33 1.28 1.17 1.14 1.18 1.28 1.43 1.60 1.73 1.93 2.32 2.68 2.80
0.90 0.86 0.88 0.91 0.89 0.88 0.88 0.90 0.87 0.88 0.95 1.02 1.03 1.07 1.15 1.23 1.32 1.35 1.27 1.07 0.98 0.88 0.92 0.87 0.80 0.91 0.94 1.11 1.20 1.09 0.96 0.95 0.83 0.81 0.86 0.93 1.08 1.26 1.38 1.55 1.93 2.36 2.70
0.66 0.66 0.69 0.71 0.69 0.70 0.72 0.78 0.74 0.73 0.75 0.80 0.82 1.00 1.10 1.09 1.19 1.29 1.30 1.26 1.17 1.11 1.17 1.10 0.95 0.91 0.95 1.04 1.04 0.94 0.87 0.75 0.61 0.54 0.54 0.58 0.66 0.83 1.01 1.18 1.37 1.59 1.83
0.63 0.65 0.67 0.69 0.70 0.72 0.74 0.73 0.70 0.71 0.79 0.81 0.83 0.94 1.03 1.05 1.10 1.19 1.28 1.34 1.39 1.35 1.33 1.26 1.05 0.98 0.95 0.93 0.97 0.91 0.95 0.76 0.51 0.42 0.41 0.43 0.44 0.48 0.60 0.78 0.95 1.11 1.33
0.66 0.66 0.65 0.69 0.71 0.70 0.68 0.67 0.65 0.68 0.77 0.85 0.93 1.05 1.08 1.06 1.07 1.15 1.29 1.45 1.55 1.54 1.39 1.16 1.04 1.07 1.10 0.99 0.94 0.80 0.76 0.73 0.55 0.43 0.39 0.39 0.39 0.41 0.46 0.60 0.75 0.88 1.04
0.67 0.67 0.66 0.66 0.66 0.66 0.67 0.69 0.68 0.74 0.78 0.81 0.85 0.96 1.04 1.06 1.10 1.13 1.23 1.31 1.46 1.59 1.46 1.24 1.19 1.24 1.29 1.25 1.09 0.91 0.76 0.70 0.59 0.47 0.38 0.37 0.37 0.42 0.48 0.55 0.66 0.77 0.85
0.72 0.73 0.72 0.70 0.66 0.69 0.79 0.83 0.81 0.85 0.88 0.88 0.89 0.90 0.88 0.93 1.04 1.05 1.12 1.15 1.26 1.46 1.42 1.32 1.35 1.38 1.41 1.35 1.26 1.08 0.89 0.78 0.72 0.56 0.42 0.37 0.36 0.38 0.42 0.42 0.50 0.65 0.77
0.77 0.78 0.81 0.87 0.89 0.89 0.88 0.90 0.95 0.96 0.87 0.81 0.81 0.81 0.77 0.80 0.85 0.93 1.03 1.01 1.03 1.15 1.29 1.35 1.44 1.52 1.59 1.48 1.31 1.17 1.04 0.95 0.75 0.64 0.53 0.43 0.40 0.38 0.39 0.39 0.43 0.51 0.64
0.72 0.76 0.84 0.96 1.04 1.08 1.09 1.00 0.93 0.91 0.84 0.77 0.71 0.68 0.69 0.72 0.75 0.82 0.91 0.95 0.97 1.06 1.19 1.27 1.42 1.62 1.64 1.68 1.56 1.34 1.24 1.17 0.92 0.67 0.62 0.55 0.49 0.44 0.40 0.36 0.37 0.44 0.54
0.68 0.81 0.93 1.03 1.17 1.23 1.15 1.08 0.98 0.93 0.89 0.79 0.70 0.64 0.60 0.58 0.61 0.68 0.69 0.76 0.86 0.95 0.98 1.07 1.21 1.44 1.57 1.69 1.65 1.45 1.30 1.31 1.17 0.87 0.73 0.67 0.64 0.57 0.51 0.45 0.37 0.36 0.44
0.67 0.74 0.80 0.87 0.93 0.86 0.87 0.83 0.76 0.75 0.75 0.70 0.65 0.63 0.56 0.49 0.50 0.50 0.47 0.53 0.62 0.69 0.79 0.94 1.00 1.20 1.41 1.51 1.64 1.71 1.57 1.42 1.35 1.19 1.10 1.00 0.87 0.81 0.68 0.54 0.45 0.35 0.34
0.68 0.73 0.73 0.74 0.74 0.75 0.66 0.54 0.50 0.52 0.56 0.58 0.61 0.63 0.50 0.42 0.49 0.50 0.47 0.43 0.44 0.46 0.55 0.74 0.87 0.95 1.19 1.41 1.60 1.75 1.75 1.68 1.56 1.47 1.42 1.35 1.13 0.96 0.81 0.69 0.60 0.46 0.38
0.73 0.73 0.72 0.72 0.76 0.70 0.55 0.43 0.40 0.39 0.45 0.49 0.55 0.61 0.63 0.59 0.58 0.61 0.61 0.55 0.48 0.46 0.48 0.54 0.61 0.76 1.03 1.41 1.63 1.68 1.80 1.83 1.77 1.69 1.63 1.59 1.42 1.23 1.06 0.93 0.83 0.63 0.51
0.88 0.82 0.79 0.79 0.79 0.78 0.63 0.45 0.41 0.43 0.51 0.54 0.58 0.62 0.66 0.64 0.62 0.53 0.54 0.53 0.52 0.52 0.47 0.49 0.52 0.62 0.79 1.06 1.45 1.60 1.64 1.59 1.54 1.37 1.26 1.30 1.32 1.32 1.28 1.17 1.02 0.88 0.72
1.17 1.11 1.00 0.96 0.94 0.94 0.84 0.58 0.50 0.50 0.56 0.63 0.72 0.72 0.65 0.59 0.55 0.49 0.51 0.57 0.53 0.50 0.55 0.56 0.56 0.55 0.58 0.73 1.03 1.27 1.33 1.32 1.22 1.20 1.00 0.96 0.98 1.06 1.16 1.09 0.98 0.93 0.87

GEFSMA_prec_meanprecacc_144.txt.gz
Total_Precipitation_Accumulation
1.53 1.59 1.59 1.63 1.54 1.65 1.86 2.06 2.01 2.09 2.16 1.98 1.71 1.57 1.58 1.58 1.61 1.59 1.57 1.81 1.71 1.69 2.08 2.20 2.01 1.81 1.67 1.40 1.15 0.96 0.87 0.81 0.72 0.55 0.46 0.50 0.58 0.66 0.61 0.52 0.49 0.45 0.36
1.90 1.83 1.67 1.69 1.63 1.68 1.79 1.99 2.07 2.37 2.32 2.23 1.80 1.62 1.66 1.74 1.74 1.77 1.76 2.02 1.91 1.68 1.86 2.07 2.18 2.09 1.92 1.73 1.47 1.25 1.08 0.98 0.85 0.60 0.50 0.48 0.53 0.63 0.63 0.62 0.56 0.52 0.43
2.08 2.00 1.82 1.68 1.74 1.80 1.88 1.92 2.05 2.33 2.27 2.16 1.89 1.76 1.67 1.57 1.48 1.53 1.60 1.76 1.71 1.63 1.70 1.83 2.05 2.10 2.06 2.02 1.89 1.72 1.43 1.20 1.02 0.79 0.61 0.49 0.42 0.48 0.51 0.55 0.55 0.54 0.45
2.08 2.04 1.83 1.65 1.84 1.84 1.89 2.02 2.11 2.24 2.33 2.36 2.08 1.82 1.69 1.57 1.42 1.42 1.38 1.41 1.50 1.27 1.47 1.70 1.84 1.94 2.19 2.32 2.37 2.38 2.00 1.54 1.19 0.99 0.79 0.61 0.49 0.44 0.39 0.40 0.45 0.43 0.35
1.95 2.01 1.78 1.67 1.85 1.99 1.97 1.82 2.13 2.34 2.31 2.33 2.01 1.79 1.54 1.38 1.25 1.21 1.24 1.17 1.21 1.18 1.24 1.34 1.46 1.58 2.02 2.51 2.80 2.85 2.67 2.12 1.56 1.26 1.10 0.94 0.75 0.61 0.44 0.36 0.37 0.33 0.28
1.77 1.97 1.70 1.70 1.93 2.00 1.93 2.00 2.19 2.33 2.20 2.25 2.01 1.60 1.33 1.06 1.02 0.96 0.89 0.91 0.86 0.78 0.89 1.12 1.42 1.32 1.68 2.09 2.37 2.61 2.82 2.66 2.10 1.60 1.40 1.28 1.13 0.90 0.65 0.50 0.43 0.40 0.32
1.85 2.11 1.86 1.89 1.91 1.85 1.82 1.99 2.13 2.04 1.91 2.31 2.28 1.59 1.07 0.82 0.72 0.57 0.61 0.62 0.56 0.60 0.82 1.11 1.30 1.37 1.30 1.38 1.54 1.82 2.30 2.61 2.47 2.03 1.76 1.59 1.47 1.17 0.87 0.71 0.55 0.45 0.38
1.84 1.89 1.93 1.84 1.84 1.81 1.65 1.73 1.95 1.84 1.54 1.95 2.13 1.95 1.35 0.91 0.66 0.44 0.46 0.46 0.51 0.64 0.74 0.81 1.05 1.27 1.25 1.40 1.27 1.21 1.65 2.15 2.48 2.44 2.16 1.82 1.52 1.23 1.01 0.89 0.71 0.57 0.46
1.87 1.92 1.80 1.64 1.61 1.57 1.47 1.46 1.64 1.71 1.51 1.54 1.87 2.13 1.68 1.10 0.85 0.57 0.55 0.56 0.68 0.81 0.81 0.86 0.95 1.07 1.16 1.37 1.49 1.44 1.30 1.47 2.02 2.64 2.62 2.14 1.58 1.21 1.04 1.01 0.99 0.79 0.63
2.05 1.91 1.70 1.50 1.35 1.29 1.27 1.19 1.35 1.46 1.49 1.27 1.39 1.51 1.47 1.39 1.29 0.90 0.67 0.67 0.81 0.88 0.91 0.95 0.97 1.03 1.15 1.36 1.50 1.49 1.21 1.10 1.35 2.11 2.54 2.43 1.95 1.43 1.17 1.22 1.50 1.40 1.02
2.05 1.81 1.64 1.49 1.36 1.25 1.18 1.14 1.20 1.19 1.21 1.11 1.16 1.22 1.28 1.28 1.23 1.15 0.89 0.85 0.85 0.70 0.71 0.78 0.91 1.18 1.29 1.38 1.57 1.51 1.38 1.33 1.29 1.43 1.70 1.92 1.97 1.74 1.50 1.52 1.95 2.18 1.91
1.60 1.50 1.39 1.26 1.19 1.18 1.18 1.13 1.09 1.08 1.08 1.09 1.09 1.09 1.19 1.27 1.31 1.33 1.15 1.02 0.92 0.77 0.74 0.75 0.82 1.01 1.12 1.20 1.25 1.34 1.34 1.28 1.17 1.14 1.19 1.28 1.43 1.61 1.74 1.93 2.33 2.68 2.80
0.98 0.94 0.96 0.98 0.96 0.93 0.93 0.94 0.90 0.90 0.97 1.03 1.04 1.09 1.17 1.25 1.33 1.37 1.28 1.08 0.98 0.88 0.92 0.87 0.80 0.91 0.94 1.12 1.20 1.10 0.96 0.95 0.84 0.81 0.86 0.94 1.08 1.26 1.38 1.55 1.93 2.36 2.70
0.75 0.75 0.77 0.78 0.76 0.77 0.78 0.82 0.78 0.76 0.76 0.81 0.85 1.02 1.13 1.10 1.20 1.30 1.32 1.28 1.19 1.12 1.18 1.10 0.95 0.91 0.95 1.05 1.05 0.94 0.88 0.76 0.61 0.54 0.54 0.58 0.66 0.83 1.01 1.18 1.37 1.59 1.84
0.75 0.78 0.78 0.77 0.77 0.77 0.79 0.77 0.74 0.73 0.82 0.85 0.86 0.98 1.06 1.07 1.13 1.22 1.31 1.37 1.42 1.37 1.33 1.26 1.05 0.99 0.96 0.94 0.98 0.91 0.96 0.77 0.52 0.43 0.42 0.43 0.44 0.49 0.60 0.78 0.95 1.11 1.33
0.80 0.81 0.78 0.79 0.79 0.77 0.73 0.70 0.68 0.70 0.80 0.88 0.98 1.11 1.12 1.09 1.11 1.19 1.32 1.48 1.58 1.56 1.40 1.16 1.05 1.08 1.10 1.00 0.94 0.81 0.77 0.74 0.55 0.43 0.39 0.39 0.39 0.42 0.46 0.60 0.75 0.88 1.04
0.80 0.80 0.78 0.76 0.73 0.72 0.73 0.74 0.72 0.78 0.83 0.87 0.91 1.02 1.08 1.09 1.12 1.16 1.26 1.35 1.50 1.62 1.48 1.25 1.20 1.26 1.31 1.27 1.10 0.91 0.77 0.71 0.60 0.48 0.39 0.37 0.38 0.42 0.48 0.55 0.66 0.77 0.85
0.84 0.86 0.86 0.82 0.75 0.76 0.86 0.90 0.88 0.92 0.96 0.95 0.94 0.95 0.91 0.96 1.07 1.08 1.14 1.17 1.28 1.49 1.45 1.34 1.36 1.40 1.43 1.36 1.27 1.09 0.89 0.79 0.73 0.58 0.43 0.37 0.37 0.38 0.42 0.42 0.50 0.65 0.77
0.92 0.94 1.00 1.05 1.05 1.02 0.99 1.00 1.05 1.05 0.95 0.87 0.86 0.85 0.81 0.82 0.87 0.95 1.05 1.02 1.05 1.17 1.31 1.37 1.45 1.53 1.61 1.50 1.32 1.19 1.06 0.96 0.76 0.65 0.54 0.44 0.41 0.39 0.39 0.39 0.43 0.51 0.64
0.91 0.94 1.01 1.17 1.27 1.28 1.26 1.16 1.08 1.03 0.94 0.85 0.77 0.72 0.72 0.76 0.78 0.84 0.93 0.96 0.98 1.07 1.20 1.28 1.43 1.63 1.66 1.70 1.59 1.37 1.25 1.18 0.93 0.68 0.63 0.56 0.49 0.44 0.40 0.36 0.38 0.44 0.54
0.86 1.01 1.12 1.21 1.38 1.44 1.35 1.32 1.21 1.11 1.04 0.90 0.78 0.70 0.66 0.64 0.66 0.71 0.71 0.78 0.87 0.97 0.99 1.08 1.22 1.45 1.58 1.70 1.66 1.47 1.32 1.33 1.19 0.89 0.75 0.68 0.65 0.58 0.52 0.45 0.37 0.36 0.45
0.82 0.92 1.00 1.08 1.13 1.04 1.06 1.02 0.92 0.88 0.89 0.80 0.73 0.70 0.62 0.54 0.55 0.54 0.51 0.56 0.65 0.72 0.81 0.96 1.02 1.21 1.42 1.53 1.66 1.73 1.59 1.44 1.37 1.20 1.12 1.02 0.88 0.81 0.68 0.55 0.46 0.36 0.35
0.83 0.91 0.92 0.94 0.90 0.90 0.80 0.66 0.61 0.61 0.66 0.68 0.70 0.70 0.55 0.47 0.55 0.55 0.53 0.48 0.48 0.50 0.58 0.77 0.90 0.98 1.21 1.42 1.62 1.78 1.78 1.70 1.58 1.49 1.44 1.37 1.14 0.97 0.82 0.70 0.61 0.47 0.39
0.89 0.88 0.86 0.85 0.87 0.80 0.66 0.53 0.51 0.49 0.54 0.58 0.64 0.70 0.71 0.66 0.64 0.67 0.67 0.60 0.53 0.50 0.53 0.58 0.65 0.80 1.06 1.44 1.65 1.71 1.82 1.85 1.79 1.71 1.66 1.61 1.43 1.24 1.07 0.94 0.84 0.64 0.52
1.02 0.97 0.94 0.93 0.92 0.90 0.74 0.57 0.52 0.53 0.60 0.64 0.67 0.70 0.72 0.68 0.66 0.57 0.57 0.56 0.55 0.55 0.50 0.52 0.55 0.64 0.81 1.08 1.48 1.62 1.66 1.62 1.56 1.39 1.28 1.32 1.34 1.33 1.29 1.19 1.04 0.90 0.73
1.35 1.32 1.21 1.15 1.10 1.08 0.96 0.70 0.61 0.59 0.63 0.70 0.78 0.77 0.70 0.63 0.59 0.53 0.55 0.61 0.57 0.54 0.59 0.60 0.59 0.57 0.60 0.75 1.05 1.29 1.36 1.35 1.25 1.22 1.01 0.98 1.00 1.07 1.18 1.10 1.00 0.94 0.89

GEFSMA_prec_meanprecacc_150.txt.gz
Total_Precipitation_Accumulation
1.53 1.59 1.60 1.65 1.55 1.66 1.88 2.08 2.03 2.11 2.18 2.00 1.73 1.58 1.61 1.60 1.63 1.60 1.58 1.86 1.76 1.73 2.14 2.25 2.04 1.83 1.68 1.42 1.17 0.98 0.89 0.83 0.73 0.56 0.47 0.51 0.60 0.68 0.62 0.52 0.49 0.46 0.37
1.90 1.84 1.68 1.70 1.65 1.70 1.81 2.00 2.10 2.39 2.35 2.25 1.83 1.66 1.69 1.76 1.76 1.78 1.77 2.05 1.97 1.72 1.91 2.13 2.23 2.12 1.94 1.75 1.49 1.27 1.10 1.00 0.86 0.62 0.52 0.49 0.54 0.65 0.64 0.63 0.57 0.52 0.43
2.09 2.01 1.84 1.70 1.77 1.82 1.91 1.94 2.08 2.36 2.30 2.18 1.92 1.79 1.71 1.60 1.50 1.55 1.62 1.78 1.74 1.67 1.74 1.90 2.13 2.18 2.11 2.04 1.91 1.74 1.45 1.21 1.04 0.81 0.63 0.50 0.43 0.49 0.52 0.56 0.56 0.54 0.46
2.10 2.06 1.86 1.68 1.86 1.87 1.92 2.05 2.14 2.27 2.38 2.39 2.12 1.86 1.73 1.60 1.44 1.44 1.40 1.42 1.51 1.29 1.50 1.75 1.91 2.01 2.26 2.37 2.40 2.41 2.03 1.56 1.21 1.00 0.81 0.62 0.50 0.45 0.40 0.42 0.46 0.44 0.36
1.98 2.05 1.82 1.72 1.89 2.04 2.01 1.85 2.15 2.37 2.35 2.36 2.05 1.84 1.58 1.42 1.29 1.23 1.26 1.19 1.21 1.18 1.25 1.36 1.52 1.64 2.09 2.58 2.86 2.91 2.72 2.16 1.59 1.28 1.13 0.97 0.77 0.63 0.46 0.38 0.39 0.34 0.29
1.80 2.00 1.73 1.73 1.95 2.03 1.96 2.03 2.21 2.36 2.24 2.30 2.05 1.63 1.36 1.10 1.05 0.98 0.90 0.92 0.87 0.79 0.90 1.13 1.43 1.34 1.73 2.16 2.44 2.67 2.89 2.72 2.16 1.63 1.43 1.30 1.16 0.94 0.68 0.53 0.46 0.42 0.34
1.89 2.15 1.88 1.91 1.92 1.86 1.84 2.03 2.15 2.06 1.93 2.33 2.30 1.62 1.09 0.84 0.74 0.59 0.62 0.63 0.57 0.60 0.83 1.12 1.30 1.37 1.32 1.40 1.58 1.88 2.36 2.68 2.56 2.11 1.80 1.62 1.51 1.21 0.90 0.73 0.58 0.49 0.41
1.92 1.94 1.97 1.87 1.86 1.83 1.67 1.76 1.98 1.86 1.55 1.96 2.14 1.97 1.36 0.92 0.67 0.45 0.47 0.47 0.51 0.65 0.74 0.82 1.06 1.28 1.26 1.40 1.28 1.25 1.70 2.22 2.56 2.52 2.22 1.87 1.57 1.26 1.04 0.92 0.73 0.59 0.48
1.99 2.02 1.87 1.70 1.66 1.61 1.49 1.49 1.66 1.72 1.53 1.55 1.88 2.14 1.69 1.11 0.86 0.58 0.55 0.56 0.69 0.82 0.82 0.87 0.95 1.08 1.16 1.38 1.50 1.46 1.33 1.51 2.07 2.69 2.69 2.19 1.62 1.24 1.07 1.05 1.02 0.83 0.66
2.17 2.00 1.78 1.57 1.41 1.33 1.30 1.21 1.38 1.48 1.51 1.28 1.40 1.52 1.47 1.39 1.30 0.90 0.67 0.67 0.82 0.88 0.92 0.96 0.98 1.04 1.16 1.36 1.51 1.50 1.22 1.11 1.38 2.15 2.58 2.47 1.98 1.45 1.19 1.24 1.52 1.43 1.04
2.14 1.88 1.69 1.53 1.40 1.28 1.20 1.16 1.22 1.21 1.23 1.13 1.17 1.23 1.28 1.28 1.24 1.15 0.89 0.85 0.85 0.70 0.72 0.79 0.92 1.19 1.30 1.39 1.58 1.51 1.39 1.34 1.30 1.45 1.73 1.94 1.99 1.75 1.51 1.53 1.97 2.21 1.94
1.69 1.57 1.45 1.31 1.22 1.20 1.21 1.15 1.12 1.10 1.10 1.10 1.11 1.10 1.19 1.27 1.32 1.34 1.16 1.02 0.92 0.77 0.74 0.76 0.83 1.02 1.13 1.22 1.26 1.35 1.34 1.29 1.18 1.15 1.19 1.29 1.45 1.62 1.76 1.94 2.34 2.70 2.82
1.04 0.99 1.02 1.02 0.99 0.95 0.95 0.97 0.92 0.92 0.99 1.05 1.06 1.10 1.18 1.26 1.34 1.38 1.29 1.08 0.99 0.88 0.93 0.88 0.81 0.91 0.95 1.13 1.21 1.10 0.97 0.96 0.84 0.82 0.87 0.94 1.09 1.26 1.39 1.56 1.94 2.37 2.72
0.80 0.82 0.84 0.84 0.81 0.81 0.81 0.85 0.80 0.78 0.79 0.84 0.87 1.04 1.15 1.12 1.22 1.32 1.33 1.29 1.20 1.12 1.18 1.11 0.96 0.92 0.96 1.06 1.05 0.95 0.88 0.76 0.62 0.55 0.55 0.59 0.66 0.84 1.02 1.19 1.38 1.60 1.84
0.83 0.87 0.86 0.86 0.84 0.83 0.84 0.82 0.77 0.76 0.85 0.88 0.89 1.00 1.09 1.10 1.16 1.25 1.34 1.39 1.44 1.37 1.33 1.27 1.06 1.00 0.97 0.95 0.98 0.91 0.96 0.77 0.52 0.43 0.42 0.44 0.45 0.49 0.61 0.79 0.96 1.11 1.33
0.89 0.91 0.88 0.88 0.87 0.86 0.82 0.77 0.73 0.74 0.84 0.93 1.03 1.15 1.15 1.13 1.14 1.22 1.35 1.51 1.60 1.56 1.40 1.17 1.06 1.08 1.11 1.01 0.95 0.81 0.78 0.74 0.55 0.43 0.39 0.40 0.40 0.42 0.47 0.61 0.76 0.89 1.04
0.89 0.90 0.89 0.86 0.82 0.81 0.81 0.81 0.78 0.85 0.91 0.93 0.95 1.05 1.11 1.13 1.16 1.19 1.28 1.36 1.51 1.63 1.49 1.26 1.21 1.27 1.32 1.27 1.10 0.91 0.77 0.71 0.60 0.49 0.39 0.38 0.38 0.42 0.49 0.56 0.68 0.78 0.85
0.96 0.98 0.95 0.92 0.84 0.85 0.95 0.98 0.97 1.03 1.05 1.01 0.99 1.00 0.96 1.00 1.10 1.11 1.16 1.19 1.29 1.50 1.46 1.35 1.37 1.41 1.43 1.37 1.28 1.09 0.89 0.79 0.74 0.58 0.43 0.38 0.37 0.39 0.42 0.43 0.51 0.66 0.77
1.05 1.06 1.08 1.13 1.13 1.10 1.08 1.11 1.16 1.14 1.03 0.94 0.92 0.91 0.86 0.88 0.91 0.99 1.08 1.05 1.07 1.19 1.33 1.38 1.46 1.54 1.61 1.50 1.33 1.19 1.06 0.97 0.77 0.65 0.54 0.45 0.41 0.39 0.39 0.40 0.43 0.52 0.64
1.06 1.09 1.13 1.27 1.37 1.38 1.37 1.30 1.22 1.13 1.02 0.93 0.83 0.76 0.76 0.79 0.82 0.89 0.99 1.02 1.04 1.11 1.23 1.31 1.45 1.64 1.67 1.71 1.60 1.37 1.25 1.18 0.93 0.68 0.63 0.56 0.50 0.45 0.41 0.37 0.38 0.44 0.54
1.03 1.23 1.32 1.37 1.53 1.59 1.48 1.45 1.34 1.22 1.13 0.98 0.85 0.77 0.73 0.70 0.73 0.79 0.79 0.84 0.94 1.02 1.04 1.12 1.25 1.47 1.60 1.71 1.67 1.48 1.33 1.34 1.20 0.89 0.75 0.68 0.65 0.58 0.53 0.47 0.39 0.38 0.46
0.93 1.05 1.17 1.22 1.25 1.17 1.23 1.19 1.07 1.02 1.01 0.90 0.82 0.78 0.69 0.61 0.61 0.60 0.56 0.61 0.69 0.75 0.84 0.98 1.04 1.23 1.43 1.54 1.67 1.74 1.60 1.45 1.38 1.21 1.13 1.02 0.89 0.82 0.70 0.56 0.47 0.37 0.37
0.92 0.99 1.03 1.07 1.05 1.06 0.99 0.85 0.80 0.77 0.80 0.81 0.81 0.79 0.63 0.54 0.61 0.61 0.58 0.53 0.52 0.55 0.63 0.82 0.93 1.01 1.23 1.44 1.64 1.80 1.80 1.73 1.60 1.51 1.46 1.39 1.16 1.00 0.84 0.71 0.62 0.48 0.39
1.01 1.00 0.99 0.99 1.04 1.00 0.88 0.73 0.70 0.66 0.70 0.72 0.77 0.82 0.81 0.75 0.74 0.76 0.74 0.65 0.57 0.55 0.60 0.65 0.72 0.87 1.13 1.50 1.70 1.76 1.88 1.90 1.84 1.75 1.70 1.65 1.46 1.26 1.09 0.95 0.85 0.65 0.52
1.13 1.09 1.08 1.08 1.08 1.07 0.95 0.76 0.70 0.67 0.72 0.74 0.77 0.80 0.82 0.77 0.76 0.67 0.66 0.63 0.61 0.61 0.58 0.59 0.61 0.70 0.87 1.14 1.53 1.67 1.71 1.66 1.60 1.43 1.32 1.36 1.36 1.35 1.30 1.19 1.05 0.91 0.74
1.48 1.45 1.35 1.28 1.23 1.20 1.09 0.82 0.75 0.71 0.73 0.78 0.85 0.83 0.76 0.69 0.66 0.60 0.61 0.67 0.63 0.60 0.65 0.65 0.62 0.61 0.63 0.79 1.10 1.33 1.39 1.38 1.27 1.24 1.03 0.99 1.01 1.08 1.19 1.10 1.00 0.95 0.89

GEFSMA_prec_meanprecacc_156.txt.gz
Total_Precipitation_Accumulation
1.54 1.60 1.63 1.68 1.59 1.70 1.92 2.11 2.05 2.13 2.21 2.03 1.75 1.61 1.64 1.63 1.65 1.64 1.64 1.90 1.81 1.78 2.20 2.30 2.07 1.85 1.70 1.44 1.20 1.00 0.91 0.84 0.74 0.57 0.48 0.53 0.61 0.68 0.62 0.52 0.50 0.46 0.38
1.92 1.86 1.71 1.73 1.69 1.74 1.84 2.03 2.13 2.42 2.38 2.28 1.87 1.70 1.74 1.82 1.80 1.81 1.82 2.10 2.01 1.76 1.96 2.18 2.28 2.16 1.96 1.77 1.51 1.29 1.13 1.02 0.88 0.63 0.52 0.50 0.54 0.65 0.64 0.63 0.57 0.52 0.44
2.11 2.04 1.87 1.73 1.80 1.87 1.96 1.99 2.12 2.39 2.34 2.22 1.99 1.85 1.79 1.65 1.54 1.57 1.65 1.82 1.79 1.71 1.78 1.95 2.19 2.25 2.15 2.07 1.93 1.76 1.48 1.24 1.05 0.81 0.63 0.51 0.44 0.50 0.52 0.56 0.57 0.55 0.46
2.14 2.10 1.90 1.72 1.91 1.91 1.97 2.12 2.20 2.33 2.44 2.46 2.20 1.94 1.81 1.65 1.48 1.47 1.43 1.45 1.56 1.33 1.55 1.78 1.94 2.05 2.30 2.42 2.45 2.44 2.06 1.58 1.22 1.01 0.82 0.63 0.51 0.46 0.41 0.43 0.47 0.44 0.37
2.04 2.10 1.88 1.77 1.94 2.10 2.07 1.89 2.19 2.43 2.42 2.45 2.11 1.91 1.65 1.47 1.33 1.26 1.28 1.20 1.23 1.22 1.29 1.40 1.55 1.66 2.11 2.63 2.91 2.95 2.75 2.18 1.61 1.30 1.14 0.98 0.79 0.64 0.47 0.40 0.40 0.35 0.29
1.86 2.07 1.79 1.79 2.00 2.10 2.03 2.08 2.28 2.43 2.32 2.38 2.10 1.69 1.41 1.14 1.08 1.01 0.93 0.94 0.88 0.81 0.93 1.16 1.48 1.38 1.75 2.19 2.47 2.70 2.92 2.76 2.19 1.66 1.45 1.31 1.17 0.95 0.70 0.54 0.47 0.43 0.35
1.94 2.21 1.96 1.98 1.99 1.93 1.92 2.09 2.21 2.12 1.99 2.40 2.38 1.69 1.15 0.87 0.76 0.62 0.65 0.66 0.58 0.62 0.85 1.16 1.35 1.42 1.34 1.42 1.60 1.90 2.39 2.72 2.61 2.14 1.84 1.65 1.53 1.22 0.91 0.74 0.59 0.49 0.41
2.00 2.01 2.06 1.95 1.94 1.93 1.78 1.86 2.06 1.91 1.60 2.01 2.20 2.04 1.43 0.98 0.70 0.47 0.49 0.49 0.52 0.66 0.75 0.83 1.08 1.31 1.28 1.43 1.30 1.26 1.73 2.25 2.61 2.56 2.27 1.91 1.60 1.29 1.06 0.93 0.75 0.60 0.49
2.07 2.10 1.94 1.77 1.74 1.69 1.58 1.59 1.76 1.82 1.60 1.60 1.92 2.19 1.74 1.16 0.89 0.60 0.57 0.57 0.70 0.83 0.83 0.87 0.96 1.09 1.18 1.40 1.52 1.48 1.35 1.53 2.10 2.74 2.74 2.23 1.65 1.26 1.08 1.07 1.04 0.84 0.67
2.24 2.06 1.83 1.63 1.48 1.39 1.38 1.28 1.45 1.57 1.60 1.35 1.46 1.57 1.50 1.43 1.33 0.93 0.69 0.68 0.82 0.90 0.93 0.96 0.98 1.04 1.16 1.36 1.52 1.50 1.23 1.12 1.39 2.18 2.62 2.50 2.00 1.46 1.20 1.25 1.54 1.45 1.05
2.24 1.95 1.76 1.60 1.46 1.34 1.27 1.23 1.30 1.28 1.30 1.21 1.24 1.28 1.32 1.31 1.26 1.18 0.92 0.88 0.87 0.71 0.72 0.79 0.92 1.19 1.30 1.40 1.60 1.52 1.40 1.35 1.32 1.46 1.74 1.96 2.01 1.77 1.52 1.54 1.98 2.22 1.96
1.81 1.65 1.52 1.38 1.29 1.26 1.28 1.23 1.20 1.18 1.18 1.19 1.19 1.17 1.25 1.31 1.35 1.37 1.19 1.05 0.94 0.78 0.75 0.76 0.84 1.02 1.14 1.22 1.26 1.35 1.34 1.30 1.19 1.16 1.20 1.30 1.46 1.64 1.77 1.96 2.36 2.72 2.84
1.14 1.08 1.09 1.09 1.06 1.02 1.01 1.04 1.01 0.99 1.06 1.13 1.14 1.16 1.23 1.29 1.36 1.40 1.32 1.11 1.01 0.89 0.94 0.88 0.81 0.92 0.95 1.13 1.21 1.11 0.97 0.96 0.85 0.82 0.87 0.94 1.09 1.27 1.40 1.57 1.96 2.39 2.74
0.87 0.90 0.91 0.91 0.87 0.86 0.86 0.92 0.88 0.85 0.87 0.92 0.93 1.11 1.21 1.16 1.25 1.34 1.36 1.33 1.23 1.15 1.21 1.12 0.96 0.92 0.97 1.06 1.06 0.96 0.88 0.76 0.62 0.55 0.55 0.59 0.66 0.84 1.02 1.19 1.39 1.61 1.86
0.90 0.93 0.93 0.93 0.91 0.90 0.91 0.89 0.84 0.84 0.92 0.95 0.95 1.07 1.15 1.16 1.20 1.27 1.36 1.43 1.47 1.41 1.36 1.29 1.08 1.01 0.98 0.96 0.99 0.92 0.96 0.78 0.52 0.44 0.43 0.44 0.45 0.49 0.61 0.79 0.96 1.12 1.34
0.97 0.99 0.96 0.97 0.95 0.92 0.89 0.84 0.78 0.81 0.93 1.01 1.10 1.22 1.22 1.17 1.19 1.26 1.38 1.54 1.64 1.62 1.45 1.19 1.08 1.10 1.13 1.02 0.96 0.82 0.79 0.76 0.57 0.45 0.40 0.40 0.40 0.42 0.47 0.61 0.76 0.89 1.04
1.00 1.03 1.01 0.97 0.91 0.87 0.87 0.88 0.83 0.91 0.98 1.02 1.03 1.12 1.19 1.19 1.21 1.25 1.34 1.43 1.58 1.70 1.55 1.30 1.25 1.29 1.35 1.31 1.13 0.94 0.79 0.73 0.62 0.50 0.40 0.38 0.38 0.43 0.50 0.56 0.68 0.79 0.86
1.08 1.11 1.09 1.06 0.96 0.93 1.02 1.03 1.02 1.09 1.12 1.08 1.06 1.08 1.03 1.05 1.15 1.16 1.22 1.25 1.35 1.55 1.50 1.41 1.42 1.45 1.47 1.41 1.31 1.12 0.91 0.80 0.75 0.60 0.44 0.39 0.38 0.39 0.42 0.43 0.51 0.66 0.78
1.16 1.21 1.24 1.28 1.26 1.21 1.17 1.17 1.24 1.22 1.11 1.01 1.01 0.99 0.94 0.96 0.99 1.07 1.15 1.11 1.11 1.23 1.38 1.43 1.51 1.60 1.65 1.54 1.36 1.22 1.09 1.00 0.79 0.67 0.55 0.45 0.42 0.40 0.40 0.40 0.44 0.52 0.65
1.18 1.21 1.26 1.42 1.53 1.51 1.47 1.38 1.30 1.22 1.11 1.03 0.94 0.86 0.84 0.87 0.91 0.97 1.05 1.08 1.09 1.18 1.31 1.39 1.53 1.73 1.75 1.77 1.65 1.41 1.30 1.23 0.97 0.70 0.66 0.58 0.51 0.46 0.41 0.38 0.39 0.45 0.55
1.15 1.36 1.47 1.51 1.69 1.78 1.65 1.59 1.46 1.35 1.28 1.12 0.98 0.88 0.81 0.78 0.81 0.87 0.85 0.91 1.00 1.08 1.10 1.19 1.32 1.54 1.66 1.77 1.72 1.52 1.37 1.38 1.24 0.93 0.79 0.71 0.67 0.59 0.54 0.47 0.40 0.39 0.47
1.05 1.19 1.33 1.37 1.38 1.29 1.39 1.36 1.25 1.21 1.21 1.11 1.02 0.94 0.82 0.71 0.70 0.68 0.64 0.68 0.77 0.82 0.91 1.05 1.11 1.30 1.50 1.60 1.73 1.79 1.65 1.50 1.43 1.26 1.17 1.06 0.92 0.86 0.73 0.58 0.50 0.39 0.38
1.00 1.09 1.16 1.20 1.16 1.17 1.12 0.99 0.94 0.92 0.96 0.96 0.98 0.97 0.78 0.67 0.73 0.70 0.68 0.63 0.62 0.65 0.72 0.92 1.03 1.10 1.33 1.53 1.72 1.88 1.88 1.81 1.69 1.58 1.53 1.45 1.21 1.03 0.88 0.74 0.65 0.50 0.41
1.08 1.08 1.09 1.11 1.16 1.13 1.02 0.87 0.85 0.80 0.85 0.89 0.94 0.98 0.96 0.89 0.88 0.89 0.85 0.76 0.67 0.65 0.69 0.73 0.80 0.96 1.23 1.60 1.80 1.84 1.96 1.98 1.91 1.81 1.77 1.72 1.52 1.32 1.15 1.01 0.90 0.68 0.54
1.20 1.16 1.17 1.19 1.19 1.19 1.09 0.91 0.86 0.82 0.91 0.97 1.00 1.00 1.00 0.94 0.94 0.84 0.80 0.79 0.77 0.77 0.72 0.73 0.74 0.83 0.99 1.24 1.62 1.74 1.78 1.73 1.65 1.47 1.37 1.41 1.41 1.39 1.34 1.22 1.06 0.92 0.75
1.57 1.52 1.41 1.35 1.31 1.28 1.19 0.94 0.90 0.88 0.93 0.99 1.06 1.02 0.92 0.83 0.78 0.71 0.70 0.77 0.74 0.73 0.79 0.78 0.74 0.71 0.72 0.87 1.16 1.38 1.44 1.44 1.32 1.28 1.07 1.04 1.05 1.12 1.22 1.13 1.02 0.96 0.90

GEFSMA_prec_meanprecacc_162.txt.gz
Total_Precipitation_Accumulation
1.61 1.68 1.70 1.76 1.66 1.77 1.97 2.18 2.11 2.18 2.24 2.04 1.77 1.63 1.67 1.67 1.74 1.71 1.67 1.91 1.81 1.78 2.21 2.31 2.08 1.85 1.70 1.44 1.21 1.01 0.92 0.86 0.74 0.57 0.48 0.53 0.61 0.68 0.62 0.52 0.50 0.46 0.38
1.98 1.93 1.77 1.79 1.74 1.78 1.87 2.06 2.16 2.46 2.40 2.31 1.91 1.74 1.76 1.84 1.83 1.87 1.85 2.12 2.01 1.76 1.96 2.19 2.30 2.17 1.97 1.78 1.52 1.30 1.14 1.03 0.89 0.63 0.53 0.50 0.55 0.65 0.64 0.63 0.57 0.52 0.44
2.17 2.08 1.92 1.77 1.84 1.89 2.00 2.03 2.16 2.43 2.39 2.27 2.04 1.91 1.83 1.67 1.57 1.62 1.70 1.86 1.80 1.72 1.79 1.95 2.20 2.26 2.16 2.08 1.93 1.77 1.49 1.25 1.06 0.82 0.64 0.51 0.44 0.50 0.53 0.56 0.57 0.55 0.46
2.17 2.14 1.95 1.76 1.93 1.93 2.00 2.16 2.24 2.38 2.50 2.52 2.26 2.00 1.86 1.69 1.51 1.49 1.46 1.48 1.59 1.35 1.56 1.79 1.95 2.05 2.31 2.43 2.46 2.45 2.07 1.59 1.23 1.02 0.82 0.64 0.51 0.46 0.42 0.44 0.48 0.45 0.37
2.06 2.13 1.90 1.82 1.98 2.12 2.09 1.93 2.24 2.47 2.49 2.52 2.17 1.96 1.68 1.51 1.36 1.27 1.29 1.21 1.25 1.24 1.30 1.40 1.55 1.66 2.12 2.63 2.92 2.97 2.77 2.19 1.63 1.31 1.15 0.98 0.79 0.65 0.48 0.40 0.40 0.35 0.29
1.88 2.10 1.81 1.82 2.02 2.15 2.08 2.13 2.36 2.50 2.38 2.44 2.15 1.75 1.45 1.16 1.10 1.03 0.94 0.94 0.89 0.82 0.94 1.17 1.49 1.38 1.76 2.20 2.49 2.71 2.93 2.76 2.20 1.67 1.46 1.32 1.18 0.96 0.70 0.54 0.47 0.43 0.35
1.97 2.25 2.00 2.05 2.04 2.00 1.99 2.14 2.27 2.18 2.05 2.45 2.46 1.80 1.22 0.91 0.80 0.64 0.67 0.67 0.60 0.64 0.87 1.18 1.38 1.45 1.36 1.43 1.60 1.91 2.40 2.73 2.63 2.16 1.85 1.66 1.54 1.23 0.92 0.75 0.59 0.50 0.42
2.02 2.04 2.11 2.01 2.01 2.02 1.86 1.94 2.14 2.02 1.70 2.07 2.29 2.18 1.56 1.11 0.77 0.50 0.52 0.51 0.55 0.68 0.76 0.85 1.10 1.35 1.32 1.47 1.31 1.26 1.74 2.27 2.63 2.59 2.29 1.92 1.61 1.29 1.07 0.94 0.75 0.60 0.49
2.10 2.14 1.98 1.82 1.80 1.75 1.67 1.67 1.85 1.91 1.71 1.68 1.99 2.28 1.85 1.29 0.98 0.66 0.61 0.60 0.72 0.86 0.85 0.89 0.97 1.10 1.20 1.43 1.54 1.48 1.36 1.54 2.11 2.76 2.77 2.24 1.66 1.27 1.09 1.07 1.05 0.85 0.68
2.30 2.11 1.88 1.69 1.54 1.46 1.49 1.35 1.55 1.66 1.72 1.44 1.54 1.64 1.56 1.52 1.44 1.04 0.77 0.72 0.86 0.92 0.95 0.97 0.98 1.05 1.18 1.39 1.55 1.52 1.23 1.13 1.40 2.19 2.64 2.52 2.01 1.47 1.21 1.26 1.56 1.47 1.08
2.35 2.04 1.84 1.67 1.53 1.42 1.35 1.31 1.43 1.38 1.39 1.29 1.33 1.37 1.39 1.40 1.34 1.28 1.04 0.95 0.91 0.72 0.74 0.80 0.93 1.20 1.32 1.43 1.63 1.54 1.41 1.36 1.33 1.47 1.75 1.97 2.02 1.78 1.53 1.56 2.00 2.25 1.99
1.93 1.76 1.62 1.49 1.38 1.36 1.37 1.29 1.28 1.25 1.26 1.28 1.28 1.25 1.33 1.39 1.40 1.43 1.27 1.13 0.99 0.80 0.77 0.78 0.86 1.05 1.17 1.26 1.30 1.38 1.36 1.31 1.20 1.16 1.21 1.31 1.47 1.66 1.79 1.98 2.37 2.73 2.87
1.22 1.17 1.19 1.21 1.16 1.13 1.09 1.12 1.09 1.08 1.15 1.21 1.20 1.23 1.30 1.34 1.40 1.45 1.38 1.17 1.07 0.94 0.97 0.90 0.84 0.95 0.98 1.15 1.23 1.13 0.98 0.97 0.85 0.83 0.87 0.95 1.10 1.28 1.41 1.59 1.98 2.42 2.77
0.94 1.00 1.02 1.01 0.97 0.96 0.93 1.02 0.96 0.92 0.95 0.99 0.99 1.21 1.29 1.20 1.29 1.39 1.40 1.38 1.30 1.21 1.27 1.17 0.98 0.93 0.98 1.07 1.08 0.98 0.89 0.77 0.63 0.55 0.56 0.59 0.67 0.84 1.03 1.20 1.41 1.62 1.87
0.98 1.03 1.04 1.06 1.02 0.99 1.01 0.98 0.91 0.91 1.01 1.01 1.01 1.16 1.22 1.20 1.24 1.31 1.40 1.47 1.53 1.47 1.42 1.34 1.10 1.01 0.99 0.97 1.01 0.94 0.97 0.80 0.54 0.45 0.44 0.45 0.46 0.50 0.62 0.79 0.97 1.13 1.34
1.07 1.10 1.06 1.09 1.07 1.03 1.00 0.96 0.87 0.90 1.02 1.10 1.18 1.31 1.31 1.23 1.25 1.30 1.42 1.58 1.68 1.66 1.49 1.22 1.10 1.11 1.15 1.05 1.01 0.85 0.82 0.81 0.61 0.47 0.42 0.41 0.41 0.43 0.48 0.62 0.76 0.90 1.05
1.11 1.14 1.12 1.09 1.04 1.00 1.01 1.02 0.94 1.00 1.09 1.13 1.14 1.23 1.31 1.30 1.30 1.31 1.41 1.49 1.65 1.77 1.62 1.33 1.28 1.33 1.40 1.35 1.19 0.98 0.82 0.77 0.67 0.56 0.43 0.40 0.40 0.44 0.50 0.57 0.68 0.79 0.86
1.19 1.22 1.22 1.20 1.11 1.10 1.20 1.20 1.14 1.19 1.23 1.20 1.18 1.21 1.17 1.19 1.28 1.26 1.33 1.36 1.47 1.67 1.61 1.50 1.49 1.51 1.55 1.49 1.41 1.20 0.94 0.82 0.77 0.66 0.49 0.42 0.40 0.40 0.43 0.44 0.52 0.66 0.78
1.30 1.32 1.35 1.39 1.38 1.36 1.33 1.34 1.40 1.36 1.23 1.13 1.15 1.14 1.11 1.15 1.17 1.23 1.29 1.22 1.23 1.34 1.50 1.55 1.59 1.67 1.72 1.61 1.46 1.30 1.14 1.05 0.83 0.73 0.61 0.49 0.44 0.42 0.41 0.41 0.44 0.53 0.66
1.33 1.34 1.39 1.55 1.66 1.66 1.63 1.54 1.47 1.38 1.26 1.16 1.10 1.04 1.03 1.07 1.10 1.15 1.20 1.21 1.20 1.30 1.44 1.50 1.61 1.81 1.83 1.86 1.77 1.53 1.40 1.32 1.06 0.78 0.73 0.63 0.55 0.48 0.43 0.39 0.40 0.46 0.55
1.30 1.52 1.64 1.70 1.87 1.94 1.80 1.76 1.64 1.54 1.50 1.34 1.18 1.06 0.98 0.96 1.00 1.04 0.99 1.05 1.13 1.21 1.24 1.32 1.43 1.66 1.76 1.88 1.83 1.63 1.48 1.47 1.31 0.99 0.85 0.76 0.71 0.65 0.60 0.54 0.46 0.44 0.50
1.18 1.34 1.49 1.55 1.56 1.45 1.55 1.52 1.43 1.42 1.44 1.32 1.24 1.17 1.03 0.92 0.90 0.86 0.81 0.84 0.90 0.95 1.04 1.18 1.22 1.40 1.61 1.71 1.84 1.90 1.75 1.61 1.53 1.33 1.25 1.13 0.97 0.93 0.82 0.70 0.62 0.48 0.44
1.10 1.20 1.26 1.32 1.29 1.31 1.27 1.12 1.09 1.09 1.16 1.16 1.19 1.18 0.98 0.84 0.88 0.82 0.82 0.77 0.74 0.77 0.84 1.02 1.13 1.18 1.41 1.62 1.82 1.98 1.98 1.92 1.78 1.67 1.63 1.55 1.29 1.12 0.96 0.82 0.73 0.55 0.44
1.16 1.17 1.19 1.21 1.28 1.24 1.15 0.98 0.96 0.93 1.01 1.06 1.12 1.15 1.12 1.03 1.01 1.04 0.99 0.89 0.79 0.77 0.81 0.83 0.88 1.03 1.31 1.67 1.87 1.92 2.05 2.07 1.99 1.89 1.85 1.80 1.58 1.38 1.20 1.06 0.95 0.72 0.57
1.30 1.26 1.29 1.32 1.32 1.31 1.21 1.00 0.96 0.92 1.01 1.09 1.13 1.15 1.15 1.09 1.10 1.01 0.97 0.94 0.92 0.91 0.84 0.83 0.83 0.91 1.06 1.31 1.67 1.80 1.85 1.80 1.72 1.53 1.43 1.47 1.44 1.42 1.37 1.25 1.10 0.95 0.78
1.70 1.64 1.53 1.46 1.42 1.35 1.26 1.00 0.96 0.94 1.01 1.08 1.16 1.14 1.06 0.95 0.90 0.84 0.85 0.94 0.90 0.88 0.94 0.90 0.84 0.78 0.77 0.91 1.20 1.42 1.50 1.50 1.38 1.33 1.11 1.08 1.09 1.16 1.27 1.16 1.05 0.99 0.93

GEFSMA_prec_meanprecacc_168.txt.gz
Total_Precipitation_Accumulation
1.63 1.69 1.72 1.77 1.68 1.79 1.99 2.21 2.15 2.23 2.29 2.08 1.82 1.69 1.73 1.75 1.82 1.76 1.70 1.93 1.82 1.79 2.22 2.32 2.08 1.85 1.70 1.45 1.21 1.01 0.92 0.86 0.75 0.58 0.49 0.53 0.62 0.69 0.62 0.53 0.50 0.47 0.38
2.00 1.94 1.78 1.80 1.75 1.80 1.89 2.07 2.19 2.49 2.44 2.34 1.94 1.77 1.81 1.89 1.90 1.94 1.87 2.13 2.03 1.77 1.97 2.20 2.30 2.17 1.97 1.78 1.53 1.31 1.14 1.04 0.89 0.64 0.53 0.50 0.55 0.66 0.64 0.64 0.57 0.53 0.44
2.18 2.10 1.94 1.79 1.85 1.91 2.01 2.04 2.18 2.45 2.43 2.30 2.08 1.94 1.86 1.71 1.61 1.66 1.72 1.86 1.80 1.72 1.79 1.96 2.21 2.27 2.17 2.08 1.94 1.77 1.49 1.26 1.06 0.82 0.64 0.51 0.44 0.50 0.53 0.57 0.57 0.55 0.46
2.19 2.16 1.97 1.77 1.95 1.95 2.02 2.17 2.26 2.41 2.54 2.57 2.30 2.04 1.89 1.72 1.56 1.53 1.48 1.49 1.60 1.35 1.56 1.79 1.95 2.06 2.32 2.45 2.47 2.46 2.07 1.60 1.23 1.02 0.83 0.64 0.51 0.46 0.42 0.44 0.48 0.45 0.37
2.08 2.14 1.92 1.84 1.99 2.15 2.12 1.95 2.27 2.51 2.54 2.57 2.21 2.02 1.72 1.53 1.39 1.30 1.32 1.24 1.27 1.26 1.31 1.41 1.56 1.67 2.13 2.65 2.93 2.98 2.78 2.20 1.63 1.31 1.15 0.99 0.80 0.65 0.48 0.40 0.40 0.35 0.30
1.91 2.13 1.83 1.83 2.05 2.19 2.12 2.15 2.38 2.53 2.41 2.47 2.19 1.82 1.52 1.21 1.13 1.06 0.97 0.98 0.92 0.85 0.96 1.19 1.50 1.39 1.77 2.23 2.51 2.73 2.94 2.77 2.21 1.68 1.46 1.33 1.18 0.97 0.71 0.55 0.48 0.44 0.36
2.05 2.31 2.05 2.09 2.07 2.04 2.03 2.19 2.31 2.21 2.08 2.48 2.51 1.86 1.30 0.99 0.86 0.69 0.71 0.70 0.63 0.66 0.89 1.20 1.40 1.47 1.37 1.44 1.62 1.93 2.43 2.77 2.65 2.18 1.86 1.66 1.54 1.24 0.92 0.75 0.60 0.51 0.43
2.15 2.14 2.17 2.05 2.04 2.05 1.90 1.97 2.17 2.05 1.73 2.10 2.33 2.23 1.63 1.21 0.87 0.56 0.56 0.54 0.57 0.70 0.78 0.86 1.12 1.39 1.35 1.48 1.33 1.28 1.77 2.32 2.68 2.63 2.32 1.95 1.64 1.32 1.08 0.95 0.77 0.62 0.51
2.20 2.21 2.03 1.86 1.84 1.79 1.69 1.68 1.86 1.94 1.74 1.70 2.02 2.33 1.88 1.32 1.01 0.70 0.65 0.64 0.76 0.90 0.88 0.92 0.99 1.12 1.21 1.46 1.59 1.52 1.39 1.57 2.15 2.80 2.81 2.29 1.70 1.29 1.10 1.09 1.07 0.87 0.70
2.40 2.20 1.96 1.76 1.61 1.53 1.53 1.38 1.57 1.68 1.74 1.46 1.57 1.67 1.59 1.55 1.46 1.06 0.80 0.75 0.89 0.96 0.98 1.00 1.02 1.10 1.21 1.42 1.60 1.57 1.26 1.15 1.41 2.21 2.67 2.56 2.05 1.50 1.22 1.28 1.58 1.50 1.10
2.48 2.17 1.97 1.78 1.63 1.51 1.42 1.36 1.47 1.40 1.41 1.31 1.35 1.39 1.42 1.43 1.36 1.30 1.06 0.99 0.98 0.77 0.77 0.84 0.99 1.26 1.36 1.46 1.67 1.58 1.43 1.38 1.34 1.49 1.77 1.99 2.05 1.81 1.55 1.58 2.03 2.28 2.02
2.06 1.89 1.75 1.60 1.48 1.46 1.45 1.36 1.34 1.30 1.30 1.31 1.30 1.27 1.35 1.42 1.42 1.46 1.30 1.15 1.03 0.84 0.80 0.83 0.91 1.09 1.21 1.29 1.33 1.40 1.38 1.33 1.22 1.18 1.22 1.33 1.49 1.68 1.81 2.00 2.40 2.76 2.90
1.35 1.31 1.33 1.31 1.26 1.23 1.18 1.20 1.17 1.15 1.19 1.25 1.23 1.25 1.31 1.37 1.44 1.49 1.43 1.20 1.10 0.97 1.01 0.94 0.87 0.98 1.01 1.17 1.25 1.15 1.01 1.00 0.89 0.85 0.89 0.96 1.12 1.30 1.44 1.62 2.00 2.44 2.80
1.06 1.10 1.14 1.12 1.08 1.08 1.04 1.11 1.03 0.98 1.00 1.03 1.02 1.23 1.31 1.22 1.33 1.45 1.46 1.43 1.33 1.25 1.31 1.20 1.01 0.96 1.01 1.09 1.10 1.01 0.92 0.81 0.66 0.59 0.59 0.62 0.69 0.86 1.05 1.22 1.43 1.65 1.90
1.11 1.16 1.14 1.15 1.11 1.11 1.15 1.12 1.01 0.98 1.06 1.04 1.04 1.18 1.24 1.22 1.26 1.35 1.46 1.53 1.58 1.51 1.46 1.37 1.13 1.06 1.04 1.02 1.07 0.99 1.02 0.85 0.58 0.50 0.49 0.49 0.48 0.52 0.63 0.81 0.99 1.15 1.37
1.23 1.27 1.20 1.20 1.17 1.12 1.11 1.08 0.96 0.97 1.09 1.15 1.22 1.35 1.33 1.26 1.28 1.35 1.47 1.63 1.74 1.73 1.53 1.24 1.13 1.15 1.19 1.10 1.08 0.92 0.89 0.89 0.70 0.56 0.50 0.48 0.47 0.48 0.52 0.65 0.79 0.93 1.08
1.23 1.26 1.24 1.20 1.13 1.08 1.09 1.10 1.01 1.08 1.17 1.21 1.20 1.28 1.35 1.34 1.36 1.38 1.48 1.55 1.71 1.87 1.70 1.38 1.32 1.37 1.43 1.40 1.25 1.06 0.88 0.84 0.75 0.66 0.54 0.49 0.48 0.51 0.57 0.62 0.72 0.82 0.89
1.32 1.35 1.35 1.31 1.19 1.18 1.28 1.30 1.23 1.28 1.33 1.31 1.29 1.31 1.25 1.29 1.40 1.39 1.46 1.47 1.57 1.78 1.71 1.58 1.55 1.56 1.60 1.54 1.47 1.26 1.00 0.88 0.83 0.73 0.56 0.50 0.48 0.47 0.49 0.49 0.57 0.70 0.81
1.41 1.45 1.46 1.50 1.47 1.45 1.43 1.45 1.52 1.50 1.38 1.27 1.29 1.28 1.24 1.29 1.30 1.38 1.45 1.39 1.38 1.48 1.62 1.65 1.67 1.74 1.77 1.66 1.53 1.37 1.22 1.14 0.91 0.80 0.69 0.56 0.52 0.50 0.50 0.49 0.51 0.57 0.69
1.43 1.47 1.51 1.66 1.79 1.80 1.77 1.67 1.58 1.49 1.39 1.31 1.25 1.19 1.18 1.21 1.22 1.27 1.33 1.35 1.37 1.47 1.58 1.63 1.72 1.90 1.91 1.92 1.84 1.60 1.48 1.41 1.14 0.86 0.82 0.72 0.65 0.58 0.52 0.47 0.46 0.51 0.60
1.37 1.60 1.74 1.82 2.00 2.11 1.98 1.92 1.78 1.67 1.63 1.49 1.37 1.25 1.15 1.12 1.15 1.18 1.13 1.18 1.29 1.39 1.40 1.45 1.53 1.74 1.84 1.96 1.91 1.70 1.55 1.54 1.38 1.06 0.92 0.82 0.78 0.72 0.69 0.64 0.55 0.52 0.59
1.25 1.42 1.57 1.65 1.67 1.57 1.70 1.67 1.58 1.58 1.61 1.52 1.46 1.39 1.24 1.12 1.09 1.03 0.94 0.96 1.03 1.08 1.16 1.30 1.33 1.50 1.68 1.79 1.92 1.98 1.82 1.67 1.60 1.39 1.32 1.19 1.04 1.01 0.89 0.77 0.69 0.55 0.50
1.22 1.30 1.35 1.40 1.36 1.40 1.39 1.24 1.20 1.21 1.31 1.37 1.42 1.42 1.21 1.07 1.10 0.99 0.95 0.89 0.84 0.88 0.95 1.13 1.23 1.27 1.49 1.68 1.89 2.05 2.05 1.98 1.84 1.73 1.70 1.61 1.35 1.18 1.01 0.89 0.81 0.63 0.51
1.25 1.27 1.29 1.31 1.38 1.35 1.25 1.07 1.06 1.01 1.10 1.19 1.26 1.30 1.27 1.17 1.16 1.18 1.10 0.98 0.86 0.85 0.90 0.93 0.98 1.13 1.40 1.76 1.95 1.99 2.12 2.14 2.06 1.94 1.89 1.84 1.61 1.42 1.23 1.10 1.00 0.77 0.62
1.40 1.37 1.39 1.43 1.41 1.37 1.27 1.06 1.03 0.97 1.05 1.13 1.18 1.20 1.21 1.15 1.18 1.10 1.04 1.01 0.99 0.98 0.92 0.92 0.93 1.01 1.17 1.40 1.75 1.87 1.91 1.86 1.77 1.57 1.46 1.50 1.47 1.44 1.38 1.26 1.11 0.97 0.80
1.80 1.75 1.64 1.55 1.49 1.41 1.32 1.06 1.01 0.98 1.04 1.11 1.19 1.18 1.10 1.01 0.96 0.90 0.89 0.98 0.94 0.94 1.01 0.98 0.93 0.88 0.87 1.01 1.30 1.50 1.57 1.58 1.45 1.39 1.15 1.12 1.12 1.19 1.29 1.20 1.08 1.02 0.95